| time (UTC) | temp C | wind direction | speed KPH | gust KPH | rain 1hr cm | rain 24hr cm | rain mn cm | humidity % | barometer mb |
| 20260505002144 | 20 | 179 | 0.0 | 0.0 | 0.00 | 0.00 | 0.00 | 46 | 1015.3 |
| 20260505002045 | 20 | 181 | 0.0 | 0.0 | 0.00 | 0.00 | 0.00 | 46 | 1015.3 |
| 20260505002006 | 20 | 176 | 0.0 | 0.0 | 0.00 | 0.00 | 0.00 | 46 | 1015.3 |
| 20260505001846 | 20 | 190 | 0.0 | 0.0 | 0.00 | 0.00 | 0.00 | 47 | 1015.2 |
| 20260505001747 | 20 | 169 | 0.0 | 0.0 | 0.00 | 0.00 | 0.00 | 47 | 1015.3 |
| 20260505001651 | 20 | 169 | 0.0 | 0.0 | 0.00 | 0.00 | 0.00 | 47 | 1015.2 |
| 20260505001612 | 20 | 169 | 0.0 | 0.0 | 0.00 | 0.00 | 0.00 | 47 | 1015.2 |
| 20260505001512 | 20 | 169 | 0.0 | 0.0 | 0.00 | 0.00 | 0.00 | 46 | 1015.2 |
| 20260505001352 | 20 | 169 | 0.0 | 0.0 | 0.00 | 0.00 | 0.00 | 46 | 1015.2 |
| 20260505001252 | 20 | 169 | 0.0 | 0.0 | 0.00 | 0.00 | 0.00 | 46 | 1015.2 |
| 20260505001153 | 20 | 169 | 0.0 | 0.0 | 0.00 | 0.00 | 0.00 | 46 | 1015.3 |
| 20260505001053 | 21 | 169 | 0.0 | 0.0 | 0.00 | 0.00 | 0.00 | 45 | 1015.2 |
| 20260505001014 | 21 | 169 | 0.0 | 0.0 | 0.00 | 0.00 | 0.00 | 43 | 1015.1 |
| 20260505000837 | 21 | 169 | 0.0 | 0.0 | 0.00 | 0.00 | 0.00 | 43 | 1015.2 |
| 20260505000739 | 21 | 169 | 0.0 | 0.0 | 0.00 | 0.00 | 0.00 | 42 | 1015.1 |
| 20260505000641 | 21 | 169 | 0.0 | 0.0 | 0.00 | 0.00 | 0.00 | 42 | 1015.1 |
| 20260505000542 | 21 | 169 | 0.0 | 0.0 | 0.00 | 0.00 | 0.00 | 42 | 1015.1 |
| 20260505000444 | 21 | 169 | 0.0 | 0.0 | 0.00 | 0.00 | 0.00 | 41 | 1015.1 |
| 20260505000346 | 21 | 169 | 0.0 | 0.0 | 0.00 | 0.00 | 0.00 | 40 | 1015.1 |
| 20260505000311 | 21 | 169 | 0.0 | 0.0 | 0.00 | 0.00 | 0.00 | 40 | 1015.1 |
| 20260505000237 | 21 | 169 | 0.0 | 0.0 | 0.00 | 0.00 | 0.00 | 40 | 1015.1 |
| 20260505000025 | 21 | 169 | 0.0 | 0.0 | 0.00 | 0.00 | 0.00 | 40 | 1014.8 |
| 20260504235944 | 21 | 169 | 0.0 | 0.0 | 0.00 | 0.00 | 0.00 | 40 | 1015.1 |
| 20260504235845 | 21 | 169 | 0.0 | 0.0 | 0.00 | 0.00 | 0.00 | 40 | 1015.0 |
| 20260504235745 | 21 | 169 | 0.0 | 0.0 | 0.00 | 0.00 | 0.00 | 40 | 1015.0 |
| 20260504235645 | 21 | 169 | 0.0 | 0.0 | 0.00 | 0.00 | 0.00 | 39 | 1015.0 |
| 20260504235550 | 21 | 169 | 0.0 | 0.0 | 0.00 | 0.00 | 0.00 | 39 | 1015.0 |
| 20260504235450 | 21 | 169 | 0.0 | 0.0 | 0.00 | 0.00 | 0.00 | 39 | 1015.0 |
| 20260504235350 | 22 | 169 | 0.0 | 0.0 | 0.00 | 0.00 | 0.00 | 40 | 1015.0 |
| 20260504235310 | 22 | 169 | 0.0 | 0.0 | 0.00 | 0.00 | 0.00 | 39 | 1014.9 |
| 20260504235150 | 22 | 169 | 0.0 | 0.0 | 0.00 | 0.00 | 0.00 | 39 | 1015.0 |
| 20260504235051 | 22 | 169 | 0.0 | 0.0 | 0.00 | 0.00 | 0.00 | 39 | 1015.0 |
| 20260504234952 | 22 | 169 | 0.0 | 0.0 | 0.00 | 0.00 | 0.00 | 39 | 1014.9 |
| 20260504234837 | 22 | 169 | 0.0 | 0.0 | 0.00 | 0.00 | 0.00 | 38 | 1014.9 |
| 20260504234738 | 22 | 169 | 0.0 | 0.0 | 0.00 | 0.00 | 0.00 | 38 | 1014.9 |
| 20260504234639 | 22 | 169 | 0.0 | 0.0 | 0.00 | 0.00 | 0.00 | 38 | 1014.9 |
| 20260504234559 | 22 | 169 | 0.0 | 0.0 | 0.00 | 0.00 | 0.00 | 38 | 1014.6 |
| 20260504234540 | 22 | 169 | 0.0 | 0.0 | 0.00 | 0.00 | 0.00 | 38 | 1014.9 |
| 20260504234441 | 22 | 169 | 0.0 | 0.0 | 0.00 | 0.00 | 0.00 | 38 | 1014.8 |
| 20260504234341 | 22 | 169 | 0.0 | 0.0 | 0.00 | 0.00 | 0.00 | 38 | 1014.8 |
| 20260504234246 | 22 | 169 | 0.0 | 0.0 | 0.00 | 0.00 | 0.00 | 38 | 1014.8 |
| 20260504234146 | 22 | 169 | 0.0 | 0.0 | 0.00 | 0.00 | 0.00 | 38 | 1014.7 |
| 20260504234047 | 22 | 169 | 0.0 | 0.0 | 0.00 | 0.00 | 0.00 | 38 | 1014.7 |
| 20260504233949 | 22 | 169 | 0.0 | 0.0 | 0.00 | 0.00 | 0.00 | 38 | 1014.7 |
| 20260504233850 | 22 | 169 | 0.0 | 0.0 | 0.00 | 0.00 | 0.00 | 36 | 1014.7 |
| 20260504233750 | 22 | 168 | 0.0 | 0.0 | 0.00 | 0.00 | 0.00 | 37 | 1014.7 |
| 20260504233651 | 22 | 168 | 0.0 | 0.0 | 0.00 | 0.00 | 0.00 | 37 | 1014.8 |
| 20260504233555 | 22 | 168 | 0.0 | 0.0 | 0.00 | 0.00 | 0.00 | 36 | 1014.7 |
| 20260504233455 | 22 | 168 | 0.0 | 0.0 | 0.00 | 0.00 | 0.00 | 36 | 1014.7 |
| 20260504233415 | 22 | 168 | 0.0 | 0.0 | 0.00 | 0.00 | 0.00 | 36 | 1014.7 |
| 20260504233255 | 22 | 168 | 0.0 | 0.0 | 0.00 | 0.00 | 0.00 | 36 | 1014.7 |
| 20260504233137 | 23 | 167 | 0.0 | 0.0 | 0.00 | 0.00 | 0.00 | 36 | 1014.7 |
| 20260504233038 | 23 | 167 | 0.0 | 0.0 | 0.00 | 0.00 | 0.00 | 36 | 1014.7 |
| 20260504233023 | 22 | 167 | 0.0 | 0.0 | 0.00 | 0.00 | 0.00 | 36 | 1014.4 |
| 20260504232943 | 23 | 167 | 0.0 | 0.0 | 0.00 | 0.00 | 0.00 | 36 | 1014.6 |
| 20260504232845 | 23 | 167 | 0.0 | 0.0 | 0.00 | 0.00 | 0.00 | 35 | 1014.6 |
| 20260504232807 | 23 | 167 | 0.0 | 0.0 | 0.00 | 0.00 | 0.00 | 35 | 1014.6 |
| 20260504232646 | 23 | 167 | 0.0 | 0.0 | 0.00 | 0.00 | 0.00 | 35 | 1014.7 |
| 20260504232608 | 23 | 167 | 0.0 | 0.0 | 0.00 | 0.00 | 0.00 | 35 | 1014.6 |
| 20260504232449 | 23 | 167 | 0.0 | 0.0 | 0.00 | 0.00 | 0.00 | 35 | 1014.6 |
| 20260504232350 | 23 | 167 | 0.0 | 0.0 | 0.00 | 0.00 | 0.00 | 35 | 1014.6 |
| 20260504232310 | 23 | 167 | 0.0 | 0.0 | 0.00 | 0.00 | 0.00 | 35 | 1014.6 |
| 20260504232154 | 23 | 167 | 0.0 | 0.0 | 0.00 | 0.00 | 0.00 | 35 | 1014.7 |
| 20260504232055 | 23 | 167 | 0.0 | 0.0 | 0.00 | 0.00 | 0.00 | 35 | 1014.7 |
| 20260504231956 | 23 | 167 | 0.0 | 0.0 | 0.00 | 0.00 | 0.00 | 35 | 1014.7 |
| 20260504231838 | 23 | 167 | 0.0 | 0.0 | 0.00 | 0.00 | 0.00 | 35 | 1014.7 |
| 20260504231737 | 23 | 167 | 0.0 | 0.0 | 0.00 | 0.00 | 0.00 | 34 | 1014.7 |
| 20260504231659 | 23 | 167 | 0.0 | 0.0 | 0.00 | 0.00 | 0.00 | 34 | 1014.7 |
| 20260504231626 | 23 | 167 | 0.0 | 0.0 | 0.00 | 0.00 | 0.00 | 35 | 1014.4 |
| 20260504231539 | 23 | 167 | 0.0 | 0.0 | 0.00 | 0.00 | 0.00 | 35 | 1014.7 |
| 20260504231505 | 23 | 167 | 0.0 | 0.0 | 0.00 | 0.00 | 0.00 | 34 | 1014.7 |
| 20260504231406 | 23 | 167 | 0.0 | 0.0 | 0.00 | 0.00 | 0.00 | 34 | 1014.7 |
| 20260504231246 | 23 | 159 | 0.0 | 0.0 | 0.00 | 0.00 | 0.00 | 35 | 1014.7 |
| 20260504231148 | 23 | 159 | 0.0 | 0.0 | 0.00 | 0.00 | 0.00 | 34 | 1014.7 |
| 20260504231050 | 23 | 159 | 0.0 | 0.0 | 0.00 | 0.00 | 0.00 | 34 | 1014.6 |
| 20260504231012 | 23 | 157 | 0.0 | 0.0 | 0.00 | 0.00 | 0.00 | 34 | 1014.6 |
| 20260504230913 | 23 | 148 | 0.0 | 0.0 | 0.00 | 0.00 | 0.00 | 34 | 1014.6 |
| 20260504230754 | 23 | 147 | 0.0 | 0.0 | 0.00 | 0.00 | 0.00 | 34 | 1014.6 |
| 20260504230639 | 23 | 164 | 0.0 | 0.0 | 0.00 | 0.00 | 0.00 | 34 | 1014.6 |
| 20260504230541 | 23 | 163 | 0.0 | 0.0 | 0.00 | 0.00 | 0.00 | 35 | 1014.6 |
| 20260504230440 | 23 | 163 | 0.0 | 0.0 | 0.00 | 0.00 | 0.00 | 35 | 1014.6 |
| 20260504230341 | 23 | 163 | 0.0 | 0.0 | 0.00 | 0.00 | 0.00 | 34 | 1014.6 |
| 20260504230243 | 23 | 170 | 0.0 | 0.0 | 0.00 | 0.00 | 0.00 | 34 | 1014.6 |
| 20260504230215 | 23 | 170 | 0.0 | 0.0 | 0.00 | 0.00 | 0.00 | 34 | 1014.6 |
| 20260504225944 | 23 | 162 | 0.0 | 0.0 | 0.00 | 0.00 | 0.00 | 34 | 1014.6 |
| 20260504225847 | 23 | 173 | 0.0 | 0.0 | 0.00 | 0.00 | 0.00 | 34 | 1014.6 |
| 20260504225748 | 24 | 173 | 0.0 | 0.0 | 0.00 | 0.00 | 0.00 | 34 | 1014.6 |
| 20260504225710 | 24 | 169 | 0.0 | 0.0 | 0.00 | 0.00 | 0.00 | 34 | 1014.6 |
| 20260504225551 | 24 | 156 | 0.0 | 0.0 | 0.00 | 0.00 | 0.00 | 34 | 1014.6 |
| 20260504225512 | 24 | 172 | 0.0 | 0.0 | 0.00 | 0.00 | 0.00 | 34 | 1014.5 |
| 20260504225337 | 24 | 201 | 0.0 | 0.0 | 0.00 | 0.00 | 0.00 | 33 | 1014.6 |
| 20260504225239 | 24 | 169 | 0.0 | 0.0 | 0.00 | 0.00 | 0.00 | 33 | 1014.5 |
| 20260504225201 | 24 | 184 | 0.0 | 0.0 | 0.00 | 0.00 | 0.00 | 33 | 1014.5 |
| 20260504225042 | 24 | 182 | 0.0 | 0.0 | 0.00 | 0.00 | 0.00 | 33 | 1014.5 |
| 20260504224943 | 24 | 194 | 0.0 | 0.0 | 0.00 | 0.00 | 0.00 | 32 | 1014.5 |
| 20260504224845 | 24 | 186 | 0.0 | 0.0 | 0.00 | 0.00 | 0.00 | 33 | 1014.5 |
| 20260504224747 | 24 | 169 | 0.0 | 0.0 | 0.00 | 0.00 | 0.00 | 32 | 1014.5 |
| 20260504224653 | 24 | 196 | 0.0 | 0.0 | 0.00 | 0.00 | 0.00 | 33 | 1014.5 |
| 20260504224555 | 24 | 200 | 0.0 | 0.0 | 0.00 | 0.00 | 0.00 | 32 | 1014.5 |
| 20260504224537 | 24 | 201 | 0.0 | 0.0 | 0.00 | 0.00 | 0.00 | 32 | 1014.2 |
| 20260504224437 | 24 | 169 | 0.0 | 0.0 | 0.00 | 0.00 | 0.00 | 32 | 1014.5 |
| 20260504224339 | 24 | 209 | 0.0 | 0.0 | 0.00 | 0.00 | 0.00 | 32 | 1014.5 |
| 20260504224240 | 24 | 177 | 0.0 | 0.0 | 0.00 | 0.00 | 0.00 | 32 | 1014.6 |
| 20260504224141 | 24 | 165 | 0.0 | 0.0 | 0.00 | 0.00 | 0.00 | 32 | 1014.6 |
| 20260504224107 | 24 | 150 | 0.0 | 0.0 | 0.00 | 0.00 | 0.00 | 32 | 1014.5 |
| 20260504223948 | 24 | 165 | 0.0 | 0.0 | 0.00 | 0.00 | 0.00 | 31 | 1014.5 |
| 20260504223848 | 24 | 194 | 0.0 | 0.0 | 0.00 | 0.00 | 0.00 | 31 | 1014.5 |
| 20260504223747 | 24 | 135 | 0.0 | 0.0 | 0.00 | 0.00 | 0.00 | 31 | 1014.6 |
| 20260504223648 | 24 | 155 | 0.0 | 0.0 | 0.00 | 0.00 | 0.00 | 31 | 1014.6 |
| 20260504223549 | 24 | 155 | 0.0 | 0.0 | 0.00 | 0.00 | 0.00 | 30 | 1014.6 |
| 20260504223451 | 24 | 153 | 0.0 | 0.0 | 0.00 | 0.00 | 0.00 | 30 | 1014.6 |
| 20260504223338 | 25 | 130 | 0.0 | 0.0 | 0.00 | 0.00 | 0.00 | 30 | 1014.5 |
| 20260504223240 | 25 | 170 | 0.0 | 0.0 | 0.00 | 0.00 | 0.00 | 30 | 1014.5 |
| 20260504223141 | 25 | 165 | 0.0 | 0.0 | 0.00 | 0.00 | 0.00 | 30 | 1014.5 |
| 20260504223101 | 24 | 163 | 0.0 | 0.0 | 0.00 | 0.00 | 0.00 | 30 | 1014.2 |
| 20260504223042 | 25 | 184 | 0.0 | 0.0 | 0.00 | 0.00 | 0.00 | 31 | 1014.5 |
| 20260504222944 | 25 | 163 | 0.0 | 0.0 | 0.00 | 0.00 | 0.00 | 30 | 1014.5 |
| 20260504222904 | 25 | 178 | 0.0 | 0.0 | 0.00 | 0.00 | 0.00 | 32 | 1014.5 |
| 20260504222744 | 25 | 157 | 0.0 | 0.0 | 0.00 | 0.00 | 0.00 | 30 | 1014.5 |
| 20260504222648 | 25 | 165 | 0.0 | 0.0 | 0.00 | 0.00 | 0.00 | 30 | 1014.5 |
| 20260504222548 | 25 | 124 | 0.0 | 0.0 | 0.00 | 0.00 | 0.00 | 30 | 1014.5 |
| 20260504222448 | 25 | 178 | 0.0 | 0.0 | 0.00 | 0.00 | 0.00 | 30 | 1014.5 |
| 20260504222348 | 25 | 178 | 0.0 | 0.0 | 0.00 | 0.00 | 0.00 | 31 | 1014.5 |
| 20260504222308 | 25 | 180 | 0.0 | 0.0 | 0.00 | 0.00 | 0.00 | 30 | 1014.5 |
| 20260504222147 | 25 | 160 | 0.0 | 0.0 | 0.00 | 0.00 | 0.00 | 31 | 1014.5 |
| 20260504222047 | 25 | 138 | 0.0 | 0.0 | 0.00 | 0.00 | 0.00 | 31 | 1014.6 |
| 20260504221944 | 25 | 142 | 0.0 | 0.0 | 0.00 | 0.00 | 0.00 | 30 | 1014.5 |
| 20260504221850 | 25 | 155 | 0.0 | 0.0 | 0.00 | 0.00 | 0.00 | 31 | 1014.6 |
| 20260504221751 | 25 | 185 | 0.0 | 0.0 | 0.00 | 0.00 | 0.00 | 31 | 1014.5 |
| 20260504221713 | 25 | 185 | 0.0 | 0.0 | 0.00 | 0.00 | 0.00 | 31 | 1014.6 |
| 20260504221551 | 25 | 147 | 0.0 | 0.0 | 0.00 | 0.00 | 0.00 | 30 | 1014.5 |
| 20260504221536 | 24 | 148 | 0.0 | 0.0 | 0.00 | 0.00 | 0.00 | 30 | 1014.2 |
| 20260504221452 | 25 | 192 | 0.0 | 0.0 | 0.00 | 0.00 | 0.00 | 30 | 1014.6 |
| 20260504221355 | 25 | 184 | 0.0 | 0.0 | 0.00 | 0.00 | 0.00 | 30 | 1014.5 |
| 20260504221238 | 25 | 159 | 0.0 | 0.0 | 0.00 | 0.00 | 0.00 | 31 | 1014.6 |
| 20260504221139 | 25 | 149 | 0.0 | 0.0 | 0.00 | 0.00 | 0.00 | 30 | 1014.6 |
| 20260504221040 | 25 | 142 | 0.0 | 0.0 | 0.00 | 0.00 | 0.00 | 30 | 1014.5 |
| 20260504220941 | 25 | 166 | 0.0 | 0.0 | 0.00 | 0.00 | 0.00 | 30 | 1014.6 |
| 20260504220902 | 25 | 167 | 0.0 | 0.0 | 0.00 | 0.00 | 0.00 | 29 | 1014.5 |
| 20260504220742 | 25 | 168 | 0.0 | 0.0 | 0.00 | 0.00 | 0.00 | 29 | 1014.6 |
| 20260504220643 | 25 | 150 | 0.0 | 0.0 | 0.00 | 0.00 | 0.00 | 29 | 1014.6 |
| 20260504220544 | 25 | 204 | 0.0 | 0.0 | 0.00 | 0.00 | 0.00 | 29 | 1014.5 |
| 20260504220448 | 25 | 166 | 0.0 | 0.0 | 0.00 | 0.00 | 0.00 | 29 | 1014.5 |
| 20260504220348 | 25 | 128 | 0.0 | 0.0 | 0.00 | 0.00 | 0.00 | 29 | 1014.6 |
| 20260504220313 | 25 | 145 | 0.0 | 0.0 | 0.00 | 0.00 | 0.00 | 30 | 1014.5 |
| 20260504220238 | 25 | 167 | 0.0 | 0.0 | 0.00 | 0.00 | 0.00 | 30 | 1014.5 |
| 20260504215944 | 25 | 257 | 0.0 | 0.0 | 0.00 | 0.00 | 0.00 | 30 | 1014.6 |
| 20260504215905 | 25 | 179 | 0.0 | 0.0 | 0.00 | 0.00 | 0.00 | 30 | 1014.5 |
| 20260504215748 | 25 | 180 | 0.0 | 0.0 | 0.00 | 0.00 | 0.00 | 30 | 1014.6 |
| 20260504215648 | 25 | 138 | 0.0 | 0.0 | 0.00 | 0.00 | 0.00 | 30 | 1014.6 |
| 20260504215548 | 25 | 174 | 0.0 | 0.0 | 0.00 | 0.00 | 0.00 | 30 | 1014.5 |
| 20260504215508 | 25 | 217 | 0.0 | 0.0 | 0.00 | 0.00 | 0.00 | 31 | 1014.5 |
| 20260504215345 | 25 | 217 | 0.0 | 0.0 | 0.00 | 0.00 | 0.00 | 31 | 1014.5 |
| 20260504215244 | 25 | 131 | 0.0 | 0.0 | 0.00 | 0.00 | 0.00 | 30 | 1014.5 |
| 20260504215138 | 25 | 167 | 0.0 | 0.0 | 0.00 | 0.00 | 0.00 | 30 | 1014.6 |
| 20260504215041 | 25 | 172 | 0.0 | 0.0 | 0.00 | 0.00 | 0.00 | 31 | 1014.6 |
| 20260504214942 | 25 | 173 | 0.0 | 0.0 | 0.00 | 0.00 | 0.00 | 30 | 1014.5 |
| 20260504214842 | 25 | 181 | 0.0 | 0.0 | 0.00 | 0.00 | 0.00 | 30 | 1014.5 |
| 20260504214803 | 25 | 169 | 0.0 | 0.0 | 0.00 | 0.00 | 0.00 | 31 | 1014.6 |
| 20260504214642 | 25 | 163 | 0.0 | 0.0 | 0.00 | 0.00 | 0.00 | 31 | 1014.6 |
| 20260504214541 | 25 | 146 | 0.0 | 0.0 | 0.00 | 0.00 | 0.00 | 32 | 1014.5 |
| 20260504214514 | 25 | 198 | 0.0 | 0.0 | 0.00 | 0.00 | 0.00 | 32 | 1014.2 |
| 20260504214440 | 25 | 176 | 0.0 | 0.0 | 0.00 | 0.00 | 0.00 | 32 | 1014.5 |
| 20260504214341 | 25 | 179 | 0.0 | 0.0 | 0.00 | 0.00 | 0.00 | 32 | 1014.5 |
| 20260504214242 | 25 | 130 | 0.0 | 0.0 | 0.00 | 0.00 | 0.00 | 32 | 1014.5 |
| 20260504214202 | 25 | 171 | 0.0 | 0.0 | 0.00 | 0.00 | 0.00 | 32 | 1014.6 |
| 20260504214041 | 25 | 165 | 0.0 | 0.0 | 0.00 | 0.00 | 0.00 | 32 | 1014.6 |
| 20260504213941 | 25 | 178 | 0.0 | 0.0 | 0.00 | 0.00 | 0.00 | 32 | 1014.6 |
| 20260504213842 | 25 | 196 | 0.0 | 0.0 | 0.00 | 0.00 | 0.00 | 32 | 1014.7 |
| 20260504213804 | 25 | 130 | 0.0 | 0.0 | 0.00 | 0.00 | 0.00 | 32 | 1014.6 |
| 20260504213704 | 25 | 188 | 0.0 | 0.0 | 0.00 | 0.00 | 0.00 | 32 | 1014.6 |
| 20260504213548 | 25 | 111 | 0.0 | 0.0 | 0.00 | 0.00 | 0.00 | 32 | 1014.7 |
| 20260504213449 | 25 | 111 | 0.0 | 0.0 | 0.00 | 0.00 | 0.00 | 32 | 1014.6 |
| 20260504213350 | 25 | 136 | 0.0 | 0.0 | 0.00 | 0.00 | 0.00 | 32 | 1014.7 |
| 20260504213252 | 25 | 200 | 0.0 | 0.0 | 0.00 | 0.00 | 0.00 | 31 | 1014.6 |
| 20260504213153 | 25 | 206 | 0.0 | 0.0 | 0.00 | 0.00 | 0.00 | 32 | 1014.6 |
| 20260504213054 | 25 | 164 | 0.0 | 0.0 | 0.00 | 0.00 | 0.00 | 31 | 1014.6 |
| 20260504213018 | 25 | 166 | 0.0 | 0.0 | 0.00 | 0.00 | 0.00 | 31 | 1014.4 |
| 20260504212939 | 25 | 206 | 0.0 | 0.0 | 0.00 | 0.00 | 0.00 | 31 | 1014.6 |
| 20260504212838 | 25 | 161 | 0.0 | 0.0 | 0.00 | 0.00 | 0.00 | 32 | 1014.7 |
| 20260504212738 | 25 | 186 | 0.0 | 0.0 | 0.00 | 0.00 | 0.00 | 31 | 1014.7 |
| 20260504212639 | 25 | 163 | 0.0 | 0.0 | 0.00 | 0.00 | 0.00 | 31 | 1014.7 |
| 20260504212556 | 25 | 155 | 0.0 | 0.0 | 0.00 | 0.00 | 0.00 | 31 | 1014.7 |
| 20260504212455 | 25 | 159 | 0.0 | 0.0 | 0.00 | 0.00 | 0.00 | 31 | 1014.7 |
| 20260504212354 | 25 | 150 | 0.0 | 0.0 | 0.00 | 0.00 | 0.00 | 32 | 1014.7 |
| 20260504212252 | 25 | 194 | 0.0 | 0.0 | 0.00 | 0.00 | 0.00 | 31 | 1014.7 |
| 20260504212155 | 25 | 199 | 0.0 | 0.0 | 0.00 | 0.00 | 0.00 | 33 | 1014.7 |
| 20260504212054 | 25 | 200 | 0.0 | 0.0 | 0.00 | 0.00 | 0.00 | 32 | 1014.7 |
| 20260504211954 | 25 | 150 | 0.0 | 0.0 | 0.00 | 0.00 | 0.00 | 32 | 1014.7 |
| 20260504211852 | 25 | 148 | 0.0 | 0.0 | 0.00 | 0.00 | 0.00 | 32 | 1014.6 |
| 20260504211752 | 25 | 167 | 0.0 | 0.0 | 0.00 | 0.00 | 0.00 | 32 | 1014.7 |
| 20260504211651 | 25 | 165 | 0.0 | 0.0 | 0.00 | 0.00 | 0.00 | 32 | 1014.7 |
| 20260504211611 | 25 | 103 | 0.0 | 0.0 | 0.00 | 0.00 | 0.00 | 32 | 1014.7 |
| 20260504211518 | 25 | 178 | 0.0 | 0.0 | 0.00 | 0.00 | 0.00 | 33 | 1014.4 |
| 20260504211454 | 25 | 178 | 0.0 | 0.0 | 0.00 | 0.00 | 0.00 | 33 | 1014.7 |
| 20260504211353 | 25 | 219 | 0.0 | 0.0 | 0.00 | 0.00 | 0.00 | 33 | 1014.7 |
| 20260504211252 | 25 | 167 | 0.0 | 0.0 | 0.00 | 0.00 | 0.00 | 32 | 1014.6 |
| 20260504211152 | 25 | 187 | 0.0 | 0.0 | 0.00 | 0.00 | 0.00 | 32 | 1014.6 |
| 20260504211052 | 25 | 157 | 0.0 | 0.0 | 0.00 | 0.00 | 0.00 | 32 | 1014.6 |
| 20260504210952 | 25 | 174 | 0.0 | 0.0 | 0.00 | 0.00 | 0.00 | 32 | 1014.6 |
| 20260504210911 | 25 | 174 | 0.0 | 0.0 | 0.00 | 0.00 | 0.00 | 31 | 1014.6 |
| 20260504210753 | 25 | 128 | 0.0 | 0.0 | 0.00 | 0.00 | 0.00 | 32 | 1014.6 |
| 20260504210653 | 25 | 123 | 0.0 | 0.0 | 0.00 | 0.00 | 0.00 | 31 | 1014.7 |
| 20260504210553 | 26 | 204 | 0.0 | 0.0 | 0.00 | 0.00 | 0.00 | 32 | 1014.7 |
| 20260504210453 | 26 | 180 | 0.0 | 0.0 | 0.00 | 0.00 | 0.00 | 33 | 1014.7 |
| 20260504210353 | 26 | 183 | 0.0 | 0.0 | 0.00 | 0.00 | 0.00 | 32 | 1014.6 |
| 20260504210251 | 26 | 172 | 0.0 | 0.0 | 0.00 | 0.00 | 0.00 | 32 | 1014.6 |
| 20260504210221 | 26 | 173 | 0.0 | 0.0 | 0.00 | 0.00 | 0.00 | 32 | 1014.6 |
| 20260504210031 | 25 | 229 | 0.0 | 0.0 | 0.00 | 0.00 | 0.00 | 32 | 1014.3 |
| 20260504205941 | 26 | 190 | 0.0 | 0.0 | 0.00 | 0.00 | 0.00 | 31 | 1014.6 |
| 20260504205857 | 26 | 168 | 0.0 | 0.0 | 0.00 | 0.00 | 0.00 | 31 | 1014.6 |
| 20260504205753 | 26 | 118 | 0.0 | 0.0 | 0.00 | 0.00 | 0.00 | 30 | 1014.7 |
| 20260504205654 | 26 | 119 | 0.0 | 0.0 | 0.00 | 0.00 | 0.00 | 31 | 1014.7 |
| 20260504205552 | 26 | 119 | 0.0 | 0.0 | 0.00 | 0.00 | 0.00 | 31 | 1014.7 |
| 20260504205456 | 26 | 173 | 0.0 | 0.0 | 0.00 | 0.00 | 0.00 | 31 | 1014.8 |
| 20260504205355 | 26 | 188 | 0.0 | 0.0 | 0.00 | 0.00 | 0.00 | 32 | 1014.8 |
| 20260504205254 | 26 | 195 | 0.0 | 0.0 | 0.00 | 0.00 | 0.00 | 33 | 1014.8 |
| 20260504205153 | 26 | 127 | 0.0 | 0.0 | 0.00 | 0.00 | 0.00 | 32 | 1014.8 |
| 20260504205051 | 26 | 189 | 0.0 | 0.0 | 0.00 | 0.00 | 0.00 | 33 | 1014.8 |
| 20260504204950 | 26 | 144 | 0.0 | 0.0 | 0.00 | 0.00 | 0.00 | 34 | 1014.8 |
| 20260504204853 | 26 | 174 | 0.0 | 0.0 | 0.00 | 0.00 | 0.00 | 33 | 1014.7 |
| 20260504204752 | 26 | 172 | 0.0 | 0.0 | 0.00 | 0.00 | 0.00 | 33 | 1014.7 |
| 20260504204651 | 26 | 168 | 0.0 | 0.0 | 0.00 | 0.00 | 0.00 | 33 | 1014.8 |
| 20260504204550 | 26 | 36 | 0.0 | 0.0 | 0.00 | 0.00 | 0.00 | 33 | 1014.8 |
| 20260504204520 | 26 | 19 | 0.0 | 0.0 | 0.00 | 0.00 | 0.00 | 33 | 1014.6 |
| 20260504204448 | 26 | 24 | 0.0 | 0.0 | 0.00 | 0.00 | 0.00 | 33 | 1014.8 |
| 20260504204347 | 26 | 24 | 0.0 | 0.0 | 0.00 | 0.00 | 0.00 | 32 | 1014.8 |
| 20260504204246 | 26 | 175 | 0.0 | 0.0 | 0.00 | 0.00 | 0.00 | 32 | 1014.9 |
| 20260504204150 | 26 | 176 | 0.0 | 0.0 | 0.00 | 0.00 | 0.00 | 32 | 1014.8 |
| 20260504204109 | 26 | 168 | 0.0 | 0.0 | 0.00 | 0.00 | 0.00 | 32 | 1014.8 |
| 20260504203948 | 26 | 167 | 0.0 | 0.0 | 0.00 | 0.00 | 0.00 | 33 | 1014.9 |
| 20260504203847 | 26 | 167 | 0.0 | 0.0 | 0.00 | 0.00 | 0.00 | 33 | 1014.9 |
| 20260504203746 | 26 | 150 | 0.0 | 0.0 | 0.00 | 0.00 | 0.00 | 33 | 1014.9 |
| 20260504203646 | 26 | 179 | 0.0 | 0.0 | 0.00 | 0.00 | 0.00 | 32 | 1015.0 |
| 20260504203546 | 26 | 174 | 0.0 | 0.0 | 0.00 | 0.00 | 0.00 | 32 | 1014.9 |
| 20260504203450 | 26 | 144 | 0.0 | 0.0 | 0.00 | 0.00 | 0.00 | 32 | 1014.9 |
| 20260504203349 | 26 | 194 | 0.0 | 0.0 | 0.00 | 0.00 | 0.00 | 32 | 1014.9 |
| 20260504203249 | 26 | 156 | 0.0 | 0.0 | 0.00 | 0.00 | 0.00 | 32 | 1015.0 |
| 20260504203148 | 26 | 183 | 0.0 | 0.0 | 0.00 | 0.00 | 0.00 | 33 | 1015.0 |
| 20260504203048 | 26 | 187 | 0.0 | 0.0 | 0.00 | 0.00 | 0.00 | 32 | 1015.0 |
| 20260504203003 | 25 | 188 | 0.0 | 0.0 | 0.00 | 0.00 | 0.00 | 33 | 1014.8 |
| 20260504202948 | 26 | 188 | 0.0 | 0.0 | 0.00 | 0.00 | 0.00 | 33 | 1015.1 |
| 20260504202851 | 26 | 187 | 0.0 | 0.0 | 0.00 | 0.00 | 0.00 | 32 | 1015.0 |
| 20260504202749 | 26 | 188 | 0.0 | 0.0 | 0.00 | 0.00 | 0.00 | 32 | 1015.1 |
| 20260504202648 | 26 | 187 | 0.0 | 0.0 | 0.00 | 0.00 | 0.00 | 31 | 1015.1 |
| 20260504202547 | 26 | 145 | 0.0 | 0.0 | 0.00 | 0.00 | 0.00 | 32 | 1015.1 |
| 20260504202446 | 26 | 174 | 0.0 | 0.0 | 0.00 | 0.00 | 0.00 | 32 | 1015.2 |
| 20260504202346 | 26 | 138 | 0.0 | 0.0 | 0.00 | 0.00 | 0.00 | 32 | 1015.2 |
| 20260504202245 | 26 | 202 | 0.0 | 0.0 | 0.00 | 0.00 | 0.00 | 33 | 1015.2 |
| 20260504202149 | 26 | 202 | 0.0 | 0.0 | 0.00 | 0.00 | 0.00 | 32 | 1015.1 |
| 20260504202107 | 26 | 191 | 0.0 | 0.0 | 0.00 | 0.00 | 0.00 | 33 | 1015.2 |
| 20260504201946 | 26 | 190 | 0.0 | 0.0 | 0.00 | 0.00 | 0.00 | 33 | 1015.2 |
| 20260504201845 | 26 | 185 | 0.0 | 0.0 | 0.00 | 0.00 | 0.00 | 33 | 1015.2 |
| 20260504201745 | 26 | 117 | 0.0 | 0.0 | 0.00 | 0.00 | 0.00 | 32 | 1015.1 |
| 20260504201644 | 26 | 162 | 0.0 | 0.0 | 0.00 | 0.00 | 0.00 | 33 | 1015.2 |
| 20260504201543 | 26 | 169 | 0.0 | 0.0 | 0.00 | 0.00 | 0.00 | 33 | 1015.2 |
| 20260504201512 | 25 | 168 | 0.0 | 0.0 | 0.00 | 0.00 | 0.00 | 33 | 1014.9 |
| 20260504201447 | 26 | 162 | 0.0 | 0.0 | 0.00 | 0.00 | 0.00 | 33 | 1015.2 |
| 20260504201347 | 26 | 162 | 0.0 | 0.0 | 0.00 | 0.00 | 0.00 | 33 | 1015.1 |
| 20260504201244 | 26 | 135 | 0.0 | 0.0 | 0.00 | 0.00 | 0.00 | 32 | 1015.1 |
| 20260504201143 | 26 | 160 | 0.0 | 0.0 | 0.00 | 0.00 | 0.00 | 32 | 1015.2 |
| 20260504201043 | 26 | 169 | 0.0 | 0.0 | 0.00 | 0.00 | 0.00 | 33 | 1015.2 |
| 20260504200942 | 26 | 188 | 0.0 | 0.0 | 0.00 | 0.00 | 0.00 | 33 | 1015.2 |
| 20260504200841 | 26 | 145 | 0.0 | 0.0 | 0.00 | 0.00 | 0.00 | 32 | 1015.2 |
| 20260504200744 | 26 | 235 | 0.0 | 0.0 | 0.00 | 0.00 | 0.00 | 32 | 1015.1 |
| 20260504200644 | 26 | 153 | 0.0 | 0.0 | 0.00 | 0.00 | 0.00 | 32 | 1015.3 |
| 20260504200542 | 26 | 171 | 0.0 | 0.0 | 0.00 | 0.00 | 0.00 | 32 | 1015.2 |
| 20260504200503 | 26 | 157 | 0.0 | 0.0 | 0.00 | 0.00 | 0.00 | 32 | 1015.3 |
| 20260504200340 | 26 | 215 | 0.0 | 0.0 | 0.00 | 0.00 | 0.00 | 32 | 1015.2 |
| 20260504200240 | 26 | 321 | 0.0 | 0.0 | 0.00 | 0.00 | 0.00 | 31 | 1015.2 |
| 20260504200210 | 26 | 321 | 0.0 | 0.0 | 0.00 | 0.00 | 0.00 | 31 | 1015.2 |
| 20260504200015 | 25 | 321 | 0.0 | 0.0 | 0.00 | 0.00 | 0.00 | 31 | 1015.0 |
| 20260504195937 | 26 | 225 | 0.0 | 0.0 | 0.00 | 0.00 | 0.00 | 31 | 1015.2 |
| 20260504195856 | 26 | 153 | 0.0 | 0.0 | 0.00 | 0.00 | 0.00 | 31 | 1015.2 |
| 20260504195756 | 26 | 153 | 0.0 | 0.0 | 0.00 | 0.00 | 0.00 | 31 | 1015.3 |
| 20260504195655 | 26 | 152 | 0.0 | 0.0 | 0.00 | 0.00 | 0.00 | 31 | 1015.3 |
| 20260504195555 | 26 | 183 | 0.0 | 0.0 | 0.00 | 0.00 | 0.00 | 32 | 1015.3 |
| 20260504195439 | 26 | 184 | 0.0 | 0.0 | 0.00 | 0.00 | 0.00 | 34 | 1015.3 |
| 20260504195338 | 26 | 193 | 0.0 | 0.0 | 0.00 | 0.00 | 0.00 | 32 | 1015.4 |
| 20260504195238 | 25 | 193 | 0.0 | 0.0 | 0.00 | 0.00 | 0.00 | 32 | 1015.4 |
| 20260504195137 | 25 | 180 | 0.0 | 0.0 | 0.00 | 0.00 | 0.00 | 32 | 1015.4 |
| 20260504195056 | 25 | 112 | 0.0 | 0.0 | 0.00 | 0.00 | 0.00 | 32 | 1015.4 |
| 20260504194955 | 26 | 158 | 0.0 | 0.0 | 0.00 | 0.00 | 0.00 | 33 | 1015.4 |
| 20260504194855 | 25 | 117 | 0.0 | 0.0 | 0.00 | 0.00 | 0.00 | 34 | 1015.4 |
| 20260504194737 | 25 | 139 | 0.0 | 0.0 | 0.00 | 0.00 | 0.00 | 33 | 1015.4 |
| 20260504194657 | 25 | 115 | 0.0 | 0.0 | 0.00 | 0.00 | 0.00 | 33 | 1015.5 |
| 20260504194615 | 25 | 148 | 0.0 | 0.0 | 0.00 | 0.00 | 0.00 | 31 | 1015.4 |
| 20260504194515 | 25 | 195 | 0.0 | 0.0 | 0.00 | 0.00 | 0.00 | 31 | 1015.2 |
| 20260504194454 | 26 | 195 | 0.0 | 0.0 | 0.00 | 0.00 | 0.00 | 33 | 1015.5 |
| 20260504194412 | 25 | 188 | 0.0 | 0.0 | 0.00 | 0.00 | 0.00 | 34 | 1015.5 |
| 20260504194250 | 25 | 184 | 0.0 | 0.0 | 0.00 | 0.00 | 0.00 | 33 | 1015.4 |
| 20260504194150 | 25 | 184 | 0.0 | 0.0 | 0.00 | 0.00 | 0.00 | 32 | 1015.4 |
| 20260504194048 | 25 | 170 | 0.0 | 0.0 | 0.00 | 0.00 | 0.00 | 33 | 1015.4 |
| 20260504193951 | 25 | 163 | 0.0 | 0.0 | 0.00 | 0.00 | 0.00 | 33 | 1015.4 |
| 20260504193910 | 25 | 149 | 0.0 | 0.0 | 0.00 | 0.00 | 0.00 | 32 | 1015.4 |
| 20260504193749 | 25 | 149 | 0.0 | 0.0 | 0.00 | 0.00 | 0.00 | 33 | 1015.5 |
| 20260504193648 | 25 | 173 | 0.0 | 0.0 | 0.00 | 0.00 | 0.00 | 33 | 1015.5 |
| 20260504193547 | 25 | 173 | 0.0 | 0.0 | 0.00 | 0.00 | 0.00 | 33 | 1015.5 |
| 20260504193507 | 25 | 172 | 0.0 | 0.0 | 0.00 | 0.00 | 0.00 | 33 | 1015.5 |
| 20260504193405 | 25 | 172 | 0.0 | 0.0 | 0.00 | 0.00 | 0.00 | 35 | 1015.5 |
| 20260504193243 | 25 | 173 | 0.0 | 0.0 | 0.00 | 0.00 | 0.00 | 35 | 1015.5 |
| 20260504193202 | 25 | 173 | 0.0 | 0.0 | 0.00 | 0.00 | 0.00 | 34 | 1015.6 |
| 20260504193113 | 25 | 171 | 0.0 | 0.0 | 0.00 | 0.00 | 0.00 | 34 | 1015.3 |
| 20260504193045 | 25 | 171 | 0.0 | 0.0 | 0.00 | 0.00 | 0.00 | 34 | 1015.6 |
| 20260504192944 | 25 | 162 | 0.0 | 0.0 | 0.00 | 0.00 | 0.00 | 33 | 1015.6 |
| 20260504192844 | 25 | 169 | 0.0 | 0.0 | 0.00 | 0.00 | 0.00 | 32 | 1015.6 |
| 20260504192742 | 25 | 163 | 0.0 | 0.0 | 0.00 | 0.00 | 0.00 | 33 | 1015.6 |
| 20260504192641 | 25 | 145 | 0.0 | 0.0 | 0.00 | 0.00 | 0.00 | 34 | 1015.6 |
| 20260504192539 | 25 | 194 | 0.0 | 0.0 | 0.00 | 0.00 | 0.00 | 33 | 1015.6 |
| 20260504192440 | 25 | 153 | 0.0 | 0.0 | 0.00 | 0.00 | 0.00 | 35 | 1015.6 |
| 20260504192344 | 25 | 174 | 0.0 | 0.0 | 0.00 | 0.00 | 0.00 | 35 | 1015.5 |
| 20260504192241 | 25 | 173 | 0.0 | 0.0 | 0.00 | 0.00 | 0.00 | 35 | 1015.6 |
| 20260504192140 | 25 | 173 | 0.0 | 0.0 | 0.00 | 0.00 | 0.00 | 35 | 1015.6 |
| 20260504192040 | 25 | 173 | 0.0 | 0.0 | 0.00 | 0.00 | 0.00 | 35 | 1015.6 |
| 20260504191939 | 25 | 180 | 0.0 | 0.0 | 0.00 | 0.00 | 0.00 | 36 | 1015.6 |
| 20260504191858 | 25 | 180 | 0.0 | 0.0 | 0.00 | 0.00 | 0.00 | 35 | 1015.6 |
| 20260504191817 | 25 | 196 | 0.0 | 0.0 | 0.00 | 0.00 | 0.00 | 34 | 1015.7 |
| 20260504191640 | 25 | 140 | 0.0 | 0.0 | 0.00 | 0.00 | 0.00 | 34 | 1015.8 |
| 20260504191557 | 25 | 138 | 0.0 | 0.0 | 0.00 | 0.00 | 0.00 | 34 | 1015.8 |
| 20260504191513 | 25 | 123 | 0.0 | 0.0 | 0.00 | 0.00 | 0.00 | 34 | 1015.6 |
| 20260504191456 | 25 | 136 | 0.0 | 0.0 | 0.00 | 0.00 | 0.00 | 34 | 1015.8 |
| 20260504191415 | 25 | 156 | 0.0 | 0.0 | 0.00 | 0.00 | 0.00 | 35 | 1015.9 |
| 20260504191252 | 25 | 202 | 0.0 | 0.0 | 0.00 | 0.00 | 0.00 | 35 | 1015.8 |
| 20260504191151 | 25 | 75 | 0.0 | 0.0 | 0.00 | 0.00 | 0.00 | 33 | 1015.8 |
| 20260504191050 | 25 | 114 | 0.0 | 0.0 | 0.00 | 0.00 | 0.00 | 34 | 1015.8 |
| 20260504190947 | 25 | 175 | 0.0 | 0.0 | 0.00 | 0.00 | 0.00 | 34 | 1015.8 |
| 20260504190851 | 25 | 178 | 0.0 | 0.0 | 0.00 | 0.00 | 0.00 | 35 | 1015.8 |
| 20260504190810 | 25 | 174 | 0.0 | 0.0 | 0.00 | 0.00 | 0.00 | 35 | 1015.9 |
| 20260504190648 | 25 | 126 | 0.0 | 0.0 | 0.00 | 0.00 | 0.00 | 35 | 1015.9 |
| 20260504190546 | 25 | 224 | 0.0 | 0.0 | 0.00 | 0.00 | 0.00 | 34 | 1015.9 |
| 20260504190446 | 25 | 179 | 0.0 | 0.0 | 0.00 | 0.00 | 0.00 | 34 | 1015.9 |
| 20260504190337 | 25 | 179 | 0.0 | 0.0 | 0.00 | 0.00 | 0.00 | 34 | 1015.9 |
| 20260504190300 | 25 | 179 | 0.0 | 0.0 | 0.00 | 0.00 | 0.00 | 34 | 1015.9 |
| 20260504190230 | 25 | 179 | 0.0 | 0.0 | 0.00 | 0.00 | 0.00 | 34 | 1015.9 |
| 20260504190016 | 25 | 180 | 0.0 | 0.0 | 0.00 | 0.00 | 0.00 | 33 | 1016.0 |
| 20260504185914 | 25 | 177 | 0.0 | 0.0 | 0.00 | 0.00 | 0.00 | 33 | 1016.0 |
| 20260504185753 | 25 | 177 | 0.0 | 0.0 | 0.00 | 0.00 | 0.00 | 32 | 1016.0 |
| 20260504185652 | 25 | 171 | 0.0 | 0.0 | 0.00 | 0.00 | 0.00 | 33 | 1016.0 |
| 20260504185552 | 25 | 154 | 0.0 | 0.0 | 0.00 | 0.00 | 0.00 | 33 | 1016.0 |
| 20260504185455 | 25 | 121 | 0.0 | 0.0 | 0.00 | 0.00 | 0.00 | 33 | 1016.1 |
| 20260504185355 | 25 | 310 | 0.0 | 0.0 | 0.00 | 0.00 | 0.00 | 34 | 1016.1 |
| 20260504185253 | 25 | 231 | 0.0 | 0.0 | 0.00 | 0.00 | 0.00 | 34 | 1016.0 |
| 20260504185153 | 25 | 211 | 0.0 | 0.0 | 0.00 | 0.00 | 0.00 | 35 | 1016.0 |
| 20260504185053 | 25 | 263 | 0.0 | 0.0 | 0.00 | 0.00 | 0.00 | 36 | 1016.0 |
| 20260504184952 | 25 | 263 | 0.0 | 0.0 | 0.00 | 0.00 | 0.00 | 35 | 1016.0 |
| 20260504184851 | 25 | 218 | 0.0 | 0.0 | 0.00 | 0.00 | 0.00 | 36 | 1016.0 |
| 20260504184814 | 25 | 150 | 0.0 | 0.0 | 0.00 | 0.00 | 0.00 | 36 | 1016.0 |
| 20260504184653 | 25 | 150 | 0.0 | 0.0 | 0.00 | 0.00 | 0.00 | 36 | 1016.1 |
| 20260504184553 | 25 | 150 | 0.0 | 0.0 | 0.00 | 0.00 | 0.00 | 35 | 1016.1 |
| 20260504184537 | 25 | 160 | 0.0 | 0.0 | 0.00 | 0.00 | 0.00 | 35 | 1015.8 |
| 20260504184453 | 25 | 160 | 0.0 | 0.0 | 0.00 | 0.00 | 0.00 | 35 | 1016.1 |
| 20260504184353 | 25 | 290 | 0.0 | 0.0 | 0.00 | 0.00 | 0.00 | 35 | 1016.1 |
| 20260504184312 | 25 | 290 | 0.0 | 0.0 | 0.00 | 0.00 | 0.00 | 33 | 1016.1 |
| 20260504184210 | 25 | 288 | 0.0 | 0.0 | 0.00 | 0.00 | 0.00 | 33 | 1016.1 |
| 20260504184049 | 25 | 346 | 0.0 | 0.0 | 0.00 | 0.00 | 0.00 | 33 | 1016.1 |
| 20260504183952 | 25 | 174 | 0.0 | 0.0 | 0.00 | 0.00 | 0.00 | 33 | 1016.2 |
| 20260504183852 | 25 | 174 | 0.0 | 0.0 | 0.00 | 0.00 | 0.00 | 35 | 1016.2 |
| 20260504183750 | 25 | 173 | 0.0 | 0.0 | 0.00 | 0.00 | 0.00 | 35 | 1016.3 |
| 20260504183648 | 25 | 173 | 0.0 | 0.0 | 0.00 | 0.00 | 0.00 | 35 | 1016.3 |
| 20260504183548 | 25 | 173 | 0.0 | 0.0 | 0.00 | 0.00 | 0.00 | 36 | 1016.3 |
| 20260504183448 | 25 | 173 | 0.0 | 0.0 | 0.00 | 0.00 | 0.00 | 37 | 1016.3 |
| 20260504183349 | 25 | 171 | 0.0 | 0.0 | 0.00 | 0.00 | 0.00 | 36 | 1016.3 |
| 20260504183248 | 24 | 171 | 0.0 | 0.0 | 0.00 | 0.00 | 0.00 | 36 | 1016.3 |
| 20260504183147 | 24 | 171 | 0.0 | 0.0 | 0.00 | 0.00 | 0.00 | 35 | 1016.3 |
| 20260504183106 | 24 | 173 | 0.0 | 0.0 | 0.00 | 0.00 | 0.00 | 35 | 1016.3 |
| 20260504183012 | 24 | 171 | 0.0 | 0.0 | 0.00 | 0.00 | 0.00 | 35 | 1016.1 |
| 20260504182945 | 24 | 136 | 0.0 | 0.0 | 0.00 | 0.00 | 0.00 | 38 | 1016.3 |
| 20260504182845 | 24 | 149 | 0.0 | 0.0 | 0.00 | 0.00 | 0.00 | 36 | 1016.4 |
| 20260504182745 | 24 | 143 | 0.0 | 0.0 | 0.00 | 0.00 | 0.00 | 36 | 1016.3 |
| 20260504182649 | 24 | 80 | 0.0 | 0.0 | 0.00 | 0.00 | 0.00 | 36 | 1016.3 |
| 20260504182548 | 24 | 195 | 0.0 | 0.0 | 0.00 | 0.00 | 0.00 | 35 | 1016.3 |
| 20260504182507 | 24 | 237 | 0.0 | 0.0 | 0.00 | 0.00 | 0.00 | 35 | 1016.3 |
| 20260504182405 | 24 | 203 | 0.0 | 0.0 | 0.00 | 0.00 | 0.00 | 34 | 1016.3 |
| 20260504182243 | 24 | 188 | 0.0 | 0.0 | 0.00 | 0.00 | 0.00 | 34 | 1016.4 |
| 20260504182142 | 24 | 172 | 0.0 | 0.0 | 0.00 | 0.00 | 0.00 | 33 | 1016.4 |
| 20260504182041 | 24 | 144 | 0.0 | 0.0 | 0.00 | 0.00 | 0.00 | 33 | 1016.3 |
| 20260504182001 | 25 | 202 | 0.0 | 0.0 | 0.00 | 0.00 | 0.00 | 33 | 1016.3 |
| 20260504181858 | 25 | 207 | 0.0 | 0.0 | 0.00 | 0.00 | 0.00 | 34 | 1016.3 |
| 20260504181740 | 25 | 137 | 0.0 | 0.0 | 0.00 | 0.00 | 0.00 | 34 | 1016.3 |
| 20260504181640 | 25 | 149 | 0.0 | 0.0 | 0.00 | 0.00 | 0.00 | 35 | 1016.4 |
| 20260504181559 | 25 | 147 | 0.0 | 0.0 | 0.00 | 0.00 | 0.00 | 35 | 1016.4 |
| 20260504181519 | 24 | 76 | 0.0 | 0.0 | 0.00 | 0.00 | 0.00 | 34 | 1016.2 |
| 20260504181438 | 25 | 76 | 0.0 | 0.0 | 0.00 | 0.00 | 0.00 | 33 | 1016.5 |
| 20260504181357 | 25 | 76 | 0.0 | 0.0 | 0.00 | 0.00 | 0.00 | 33 | 1016.5 |
| 20260504181255 | 24 | 155 | 0.0 | 0.0 | 0.00 | 0.00 | 0.00 | 35 | 1016.5 |
| 20260504181154 | 24 | 259 | 0.0 | 0.0 | 0.00 | 0.00 | 0.00 | 35 | 1016.4 |
| 20260504181038 | 24 | 294 | 0.0 | 0.0 | 0.00 | 0.00 | 0.00 | 35 | 1016.4 |
| 20260504180938 | 24 | 53 | 0.0 | 0.0 | 0.00 | 0.00 | 0.00 | 35 | 1016.5 |
| 20260504180857 | 24 | 53 | 0.0 | 0.0 | 0.00 | 0.00 | 0.00 | 35 | 1016.4 |
| 20260504180756 | 24 | 243 | 0.0 | 0.0 | 0.00 | 0.00 | 0.00 | 36 | 1016.4 |
| 20260504180715 | 24 | 206 | 0.0 | 0.0 | 0.00 | 0.00 | 0.00 | 35 | 1016.4 |
| 20260504180553 | 24 | 158 | 0.0 | 0.0 | 0.00 | 0.00 | 0.00 | 36 | 1016.4 |
| 20260504180453 | 23 | 140 | 0.0 | 0.0 | 0.00 | 0.00 | 0.00 | 36 | 1016.4 |
| 20260504180356 | 23 | 183 | 0.0 | 0.0 | 0.00 | 0.00 | 0.00 | 36 | 1016.4 |
| 20260504180255 | 23 | 175 | 0.0 | 0.0 | 0.00 | 0.00 | 0.00 | 34 | 1016.4 |
| 20260504180222 | 23 | 175 | 0.0 | 0.0 | 0.00 | 0.00 | 0.00 | 34 | 1016.4 |
| 20260504180034 | 23 | 175 | 0.0 | 0.0 | 0.00 | 0.00 | 0.00 | 34 | 1016.2 |
| 20260504175949 | 23 | 175 | 0.0 | 0.0 | 0.00 | 0.00 | 0.00 | 34 | 1016.4 |
| 20260504175845 | 23 | 175 | 0.0 | 0.0 | 0.00 | 0.00 | 0.00 | 34 | 1016.4 |
| 20260504175805 | 23 | 175 | 0.0 | 0.0 | 0.00 | 0.00 | 0.00 | 34 | 1016.5 |
| 20260504175648 | 23 | 175 | 0.0 | 0.0 | 0.00 | 0.00 | 0.00 | 34 | 1016.4 |
| 20260504175547 | 23 | 171 | 0.0 | 0.0 | 0.00 | 0.00 | 0.00 | 33 | 1016.5 |
| 20260504175506 | 23 | 167 | 0.0 | 0.0 | 0.00 | 0.00 | 0.00 | 34 | 1016.5 |
| 20260504175345 | 24 | 161 | 0.0 | 0.0 | 0.00 | 0.00 | 0.00 | 34 | 1016.5 |
| 20260504175245 | 23 | 161 | 0.0 | 0.0 | 0.00 | 0.00 | 0.00 | 35 | 1016.5 |
| 20260504175144 | 23 | 93 | 0.0 | 0.0 | 0.00 | 0.00 | 0.00 | 36 | 1016.6 |
| 20260504175044 | 23 | 90 | 0.0 | 0.0 | 0.00 | 0.00 | 0.00 | 34 | 1016.6 |
| 20260504174946 | 23 | 88 | 0.0 | 0.0 | 0.00 | 0.00 | 0.00 | 34 | 1016.6 |
| 20260504174846 | 24 | 136 | 0.0 | 0.0 | 0.00 | 0.00 | 0.00 | 34 | 1016.6 |
| 20260504174745 | 24 | 181 | 0.0 | 0.0 | 0.00 | 0.00 | 0.00 | 34 | 1016.6 |
| 20260504174646 | 24 | 155 | 0.0 | 0.0 | 0.00 | 0.00 | 0.00 | 35 | 1016.6 |
| 20260504174544 | 24 | 225 | 0.0 | 0.0 | 0.00 | 0.00 | 0.00 | 35 | 1016.6 |
| 20260504174522 | 23 | 220 | 0.0 | 0.0 | 0.00 | 0.00 | 0.00 | 35 | 1016.5 |
| 20260504174445 | 24 | 186 | 0.0 | 0.0 | 0.00 | 0.00 | 0.00 | 36 | 1016.6 |
| 20260504174404 | 24 | 119 | 0.0 | 0.0 | 0.00 | 0.00 | 0.00 | 36 | 1016.6 |
| 20260504174302 | 23 | 91 | 0.0 | 0.0 | 0.00 | 0.00 | 0.00 | 37 | 1016.6 |
| 20260504174144 | 23 | 91 | 0.0 | 0.0 | 0.00 | 0.00 | 0.00 | 36 | 1016.7 |
| 20260504174043 | 23 | 109 | 0.0 | 0.0 | 0.00 | 0.00 | 0.00 | 36 | 1016.7 |
| 20260504173942 | 24 | 120 | 0.0 | 0.0 | 0.00 | 0.00 | 0.00 | 35 | 1016.7 |
| 20260504173842 | 24 | 296 | 0.0 | 0.0 | 0.00 | 0.00 | 0.00 | 35 | 1016.8 |
| 20260504173742 | 23 | 295 | 0.0 | 0.0 | 0.00 | 0.00 | 0.00 | 36 | 1016.8 |
| 20260504173642 | 23 | 295 | 0.0 | 0.0 | 0.00 | 0.00 | 0.00 | 36 | 1016.9 |
| 20260504173544 | 23 | 294 | 0.0 | 0.0 | 0.00 | 0.00 | 0.00 | 36 | 1016.8 |
| 20260504173444 | 23 | 260 | 0.0 | 0.0 | 0.00 | 0.00 | 0.00 | 35 | 1016.8 |
| 20260504173344 | 23 | 127 | 0.0 | 0.0 | 0.00 | 0.00 | 0.00 | 35 | 1016.8 |
| 20260504173242 | 23 | 68 | 0.0 | 0.0 | 0.00 | 0.00 | 0.00 | 35 | 1016.9 |
| 20260504173142 | 23 | 55 | 0.0 | 0.0 | 0.00 | 0.00 | 0.00 | 35 | 1016.8 |
| 20260504173055 | 23 | 76 | 0.0 | 0.0 | 0.00 | 0.00 | 0.00 | 35 | 1016.6 |
| 20260504173041 | 23 | 76 | 0.0 | 0.0 | 0.00 | 0.00 | 0.00 | 35 | 1016.8 |
| 20260504172941 | 23 | 69 | 0.0 | 0.0 | 0.00 | 0.00 | 0.00 | 35 | 1016.8 |
| 20260504172905 | 23 | 146 | 0.0 | 0.0 | 0.00 | 0.00 | 0.00 | 35 | 1016.8 |
| 20260504172743 | 23 | 146 | 0.0 | 0.0 | 0.00 | 0.00 | 0.00 | 37 | 1016.8 |
| 20260504172642 | 23 | 188 | 0.0 | 0.0 | 0.00 | 0.00 | 0.00 | 35 | 1016.8 |
| 20260504172542 | 23 | 189 | 0.0 | 0.0 | 0.00 | 0.00 | 0.00 | 35 | 1016.8 |
| 20260504172441 | 23 | 189 | 0.0 | 0.0 | 0.00 | 0.00 | 0.00 | 34 | 1016.7 |
| 20260504172340 | 24 | 182 | 0.0 | 0.0 | 0.00 | 0.00 | 0.00 | 35 | 1016.8 |
| 20260504172239 | 24 | 188 | 0.0 | 0.0 | 0.00 | 0.00 | 0.00 | 34 | 1016.8 |
| 20260504172143 | 24 | 154 | 0.0 | 0.0 | 0.00 | 0.00 | 0.00 | 35 | 1016.8 |
| 20260504172042 | 24 | 182 | 0.0 | 0.0 | 0.00 | 0.00 | 0.00 | 35 | 1016.7 |
| 20260504171940 | 24 | 329 | 0.0 | 0.0 | 0.00 | 0.00 | 0.00 | 35 | 1016.8 |
| 20260504171839 | 23 | 84 | 0.0 | 0.0 | 0.00 | 0.00 | 0.00 | 34 | 1016.8 |
| 20260504171737 | 23 | 153 | 0.0 | 0.0 | 0.00 | 0.00 | 0.00 | 34 | 1016.8 |
| 20260504171637 | 23 | 219 | 0.0 | 0.0 | 0.00 | 0.00 | 0.00 | 34 | 1016.8 |
| 20260504171541 | 23 | 323 | 0.0 | 0.0 | 0.00 | 0.00 | 0.00 | 34 | 1016.8 |
| 20260504171507 | 23 | 323 | 0.0 | 0.0 | 0.00 | 0.00 | 0.00 | 34 | 1016.7 |
| 20260504171441 | 23 | 315 | 0.0 | 0.0 | 0.00 | 0.00 | 0.00 | 33 | 1016.8 |
| 20260504171340 | 23 | 303 | 0.0 | 0.0 | 0.00 | 0.00 | 0.00 | 33 | 1016.8 |
| 20260504171240 | 23 | 269 | 0.0 | 0.0 | 0.00 | 0.00 | 0.00 | 34 | 1016.8 |
| 20260504171140 | 23 | 286 | 0.0 | 0.0 | 0.00 | 0.00 | 0.00 | 33 | 1016.8 |
| 20260504171040 | 23 | 305 | 0.0 | 0.0 | 0.00 | 0.00 | 0.00 | 34 | 1016.8 |
| 20260504170939 | 23 | 305 | 0.0 | 0.0 | 0.00 | 0.00 | 0.00 | 33 | 1016.8 |
| 20260504170902 | 23 | 305 | 0.0 | 0.0 | 0.00 | 0.00 | 0.00 | 34 | 1016.9 |
| 20260504170741 | 23 | 302 | 0.0 | 0.0 | 0.00 | 0.00 | 0.00 | 35 | 1017.0 |
| 20260504170701 | 23 | 302 | 0.0 | 0.0 | 0.00 | 0.00 | 0.00 | 34 | 1017.0 |
| 20260504170619 | 23 | 161 | 0.0 | 0.0 | 0.00 | 0.00 | 0.00 | 35 | 1017.0 |
| 20260504170517 | 23 | 157 | 0.0 | 0.0 | 0.00 | 0.00 | 0.00 | 33 | 1017.0 |
| 20260504170355 | 23 | 336 | 0.0 | 0.0 | 0.00 | 0.00 | 0.00 | 34 | 1017.0 |
| 20260504170229 | 23 | 355 | 0.0 | 0.0 | 0.00 | 0.00 | 0.00 | 35 | 1017.1 |
| 20260504160252 | 22 | 171 | 0.0 | 0.0 | 0.00 | 0.00 | 0.00 | 39 | 1018.5 |
| 20260504160218 | 22 | 171 | 0.0 | 0.0 | 0.00 | 0.00 | 0.00 | 39 | 1018.5 |
| 20260504151051 | 20 | 132 | 0.0 | 0.0 | 0.00 | 0.00 | 0.00 | 46 | 1018.7 |
| 20260504150951 | 20 | 130 | 0.0 | 0.0 | 0.00 | 0.00 | 0.00 | 47 | 1018.7 |
| 20260504150848 | 20 | 269 | 0.0 | 0.0 | 0.00 | 0.00 | 0.00 | 47 | 1018.7 |
| 20260504150751 | 20 | 153 | 0.0 | 0.0 | 0.00 | 0.00 | 0.00 | 48 | 1018.7 |
| 20260504150651 | 20 | 185 | 0.0 | 0.0 | 0.00 | 0.00 | 0.00 | 48 | 1018.7 |
| 20260504150550 | 20 | 185 | 0.0 | 0.0 | 0.00 | 0.00 | 0.00 | 49 | 1018.7 |
| 20260504150450 | 20 | 185 | 0.0 | 0.0 | 0.00 | 0.00 | 0.00 | 47 | 1018.7 |
| 20260504150411 | 20 | 187 | 0.0 | 0.0 | 0.00 | 0.00 | 0.00 | 47 | 1018.7 |
| 20260504150226 | 20 | 157 | 0.0 | 0.0 | 0.00 | 0.00 | 0.00 | 48 | 1018.7 |
| 20260504141245 | 17 | 186 | 0.0 | 0.0 | 0.00 | 0.00 | 0.00 | 60 | 1018.9 |
| 20260504141144 | 17 | 192 | 0.0 | 0.0 | 0.00 | 0.00 | 0.00 | 61 | 1018.9 |
| 20260504141046 | 17 | 159 | 0.0 | 0.0 | 0.00 | 0.00 | 0.00 | 61 | 1018.9 |
| 20260504140946 | 17 | 159 | 0.0 | 0.0 | 0.00 | 0.00 | 0.00 | 61 | 1018.9 |
| 20260504140847 | 17 | 161 | 0.0 | 0.0 | 0.00 | 0.00 | 0.00 | 62 | 1018.9 |
| 20260504140747 | 17 | 161 | 0.0 | 0.0 | 0.00 | 0.00 | 0.00 | 62 | 1018.9 |
| 20260504140651 | 17 | 161 | 0.0 | 0.0 | 0.00 | 0.00 | 0.00 | 61 | 1018.9 |
| 20260504140552 | 17 | 172 | 0.0 | 0.0 | 0.00 | 0.00 | 0.00 | 61 | 1018.9 |
| 20260504140453 | 17 | 173 | 0.0 | 0.0 | 0.00 | 0.00 | 0.00 | 62 | 1018.9 |
| 20260504140248 | 17 | 151 | 0.0 | 0.0 | 0.00 | 0.00 | 0.00 | 62 | 1018.8 |
| 20260504130751 | 14 | 350 | 0.0 | 0.0 | 0.00 | 0.00 | 0.00 | 72 | 1018.9 |
| 20260504130653 | 14 | 350 | 0.0 | 0.0 | 0.00 | 0.00 | 0.00 | 73 | 1018.9 |
| 20260504130553 | 14 | 350 | 0.0 | 0.0 | 0.00 | 0.00 | 0.00 | 73 | 1018.9 |
| 20260504130514 | 14 | 350 | 0.0 | 0.0 | 0.00 | 0.00 | 0.00 | 73 | 1019.0 |
| 20260504130356 | 14 | 350 | 0.0 | 0.0 | 0.00 | 0.00 | 0.00 | 72 | 1018.9 |
| 20260504130300 | 13 | 346 | 0.0 | 0.0 | 0.00 | 0.00 | 0.00 | 74 | 1019.0 |
| 20260504130227 | 13 | 346 | 0.0 | 0.0 | 0.00 | 0.00 | 0.00 | 74 | 1019.0 |
| 20260504120301 | 7 | 89 | 0.0 | 0.0 | 0.00 | 0.00 | 0.00 | 93 | 1018.4 |
| 20260504120229 | 7 | 89 | 0.0 | 0.0 | 0.00 | 0.00 | 0.00 | 93 | 1018.4 |
| 20260504110703 | 4 | 89 | 0.0 | 0.0 | 0.00 | 0.00 | 0.00 | 92 | 1018.7 |
| 20260504110542 | 4 | 89 | 0.0 | 0.0 | 0.00 | 0.00 | 0.00 | 92 | 1018.6 |
| 20260504110504 | 4 | 89 | 0.0 | 0.0 | 0.00 | 0.00 | 0.00 | 92 | 1018.6 |
| 20260504110243 | 4 | 89 | 0.0 | 0.0 | 0.00 | 0.00 | 0.00 | 92 | 1018.6 |
| 20260504100603 | 5 | 269 | 0.0 | 0.0 | 0.00 | 0.00 | 0.00 | 90 | 1018.6 |
| 20260504100447 | 5 | 269 | 0.0 | 0.0 | 0.00 | 0.00 | 0.00 | 90 | 1018.6 |
| 20260504100346 | 5 | 269 | 0.0 | 0.0 | 0.00 | 0.00 | 0.00 | 90 | 1018.6 |
| 20260504100248 | 5 | 269 | 0.0 | 0.0 | 0.00 | 0.00 | 0.00 | 90 | 1018.6 |
| 20260504100216 | 5 | 269 | 0.0 | 0.0 | 0.00 | 0.00 | 0.00 | 90 | 1018.7 |
| 20260504081852 | 6 | 269 | 0.0 | 0.0 | 0.00 | 0.00 | 0.00 | 87 | 1018.2 |
| 20260504081753 | 6 | 269 | 0.0 | 0.0 | 0.00 | 0.00 | 0.00 | 87 | 1018.2 |
| 20260504081654 | 6 | 269 | 0.0 | 0.0 | 0.00 | 0.00 | 0.00 | 87 | 1018.2 |
| 20260504081551 | 6 | 269 | 0.0 | 0.0 | 0.00 | 0.00 | 0.00 | 87 | 1018.2 |
| 20260504081538 | 6 | 269 | 0.0 | 0.0 | 0.00 | 0.00 | 0.00 | 87 | 1018.1 |
| 20260504081439 | 6 | 269 | 0.0 | 0.0 | 0.00 | 0.00 | 0.00 | 87 | 1018.1 |
| 20260504081400 | 6 | 269 | 0.0 | 0.0 | 0.00 | 0.00 | 0.00 | 87 | 1018.1 |
| 20260504081238 | 6 | 269 | 0.0 | 0.0 | 0.00 | 0.00 | 0.00 | 87 | 1018.1 |
| 20260504081138 | 6 | 269 | 0.0 | 0.0 | 0.00 | 0.00 | 0.00 | 87 | 1018.1 |
| 20260504081038 | 6 | 269 | 0.0 | 0.0 | 0.00 | 0.00 | 0.00 | 87 | 1018.1 |
| 20260504080939 | 6 | 269 | 0.0 | 0.0 | 0.00 | 0.00 | 0.00 | 87 | 1018.1 |
| 20260504080844 | 6 | 269 | 0.0 | 0.0 | 0.00 | 0.00 | 0.00 | 87 | 1018.1 |
| 20260504080805 | 6 | 269 | 0.0 | 0.0 | 0.00 | 0.00 | 0.00 | 87 | 1018.3 |
| 20260504080645 | 6 | 269 | 0.0 | 0.0 | 0.00 | 0.00 | 0.00 | 87 | 1018.2 |
| 20260504080546 | 6 | 269 | 0.0 | 0.0 | 0.00 | 0.00 | 0.00 | 87 | 1018.2 |
| 20260504080447 | 6 | 269 | 0.0 | 0.0 | 0.00 | 0.00 | 0.00 | 87 | 1018.2 |
| 20260504080248 | 6 | 269 | 0.0 | 0.0 | 0.00 | 0.00 | 0.00 | 87 | 1018.2 |
| 20260504070320 | 7 | 269 | 0.0 | 0.0 | 0.00 | 0.00 | 0.00 | 83 | 1018.2 |
| 20260504070228 | 7 | 269 | 0.0 | 0.0 | 0.00 | 0.00 | 0.00 | 83 | 1018.2 |
| 20260504060228 | 8 | 269 | 0.0 | 0.0 | 0.00 | 0.00 | 0.00 | 80 | 1018.4 |
| 20260504050747 | 10 | 269 | 0.0 | 0.0 | 0.00 | 0.00 | 0.00 | 78 | 1018.5 |
| 20260504050648 | 10 | 269 | 0.0 | 0.0 | 0.00 | 0.00 | 0.00 | 78 | 1018.5 |
| 20260504050605 | 10 | 269 | 0.0 | 0.0 | 0.00 | 0.00 | 0.00 | 78 | 1018.5 |
| 20260504050502 | 10 | 269 | 0.0 | 0.0 | 0.00 | 0.00 | 0.00 | 77 | 1018.5 |
| 20260504050355 | 10 | 269 | 0.0 | 0.0 | 0.00 | 0.00 | 0.00 | 77 | 1018.5 |
| 20260504050245 | 10 | 269 | 0.0 | 0.0 | 0.00 | 0.00 | 0.00 | 77 | 1018.5 |
| 20260504050215 | 10 | 269 | 0.0 | 0.0 | 0.00 | 0.00 | 0.00 | 77 | 1018.5 |
| 20260504050022 | 9 | 269 | 0.0 | 0.0 | 0.00 | 0.00 | 0.00 | 77 | 1018.6 |
| 20260504050001 | 10 | 269 | 0.0 | 0.0 | 0.00 | 0.00 | 0.00 | 77 | 1018.5 |
| 20260504045858 | 10 | 269 | 0.0 | 0.0 | 0.00 | 0.00 | 0.00 | 77 | 1018.5 |
| 20260504045756 | 10 | 269 | 0.0 | 0.0 | 0.00 | 0.00 | 0.00 | 77 | 1018.6 |
| 20260504045656 | 10 | 269 | 0.0 | 0.0 | 0.00 | 0.00 | 0.00 | 77 | 1018.5 |
| 20260504045615 | 10 | 269 | 0.0 | 0.0 | 0.00 | 0.00 | 0.00 | 77 | 1018.5 |
| 20260504045438 | 10 | 269 | 0.0 | 0.0 | 0.00 | 0.00 | 0.00 | 77 | 1018.5 |
| 20260504045357 | 10 | 269 | 0.0 | 0.0 | 0.00 | 0.00 | 0.00 | 77 | 1018.4 |
| 20260504045317 | 10 | 269 | 0.0 | 0.0 | 0.00 | 0.00 | 0.00 | 77 | 1018.4 |
| 20260504045156 | 10 | 269 | 0.0 | 0.0 | 0.00 | 0.00 | 0.00 | 77 | 1018.4 |
| 20260504045056 | 10 | 269 | 0.0 | 0.0 | 0.00 | 0.00 | 0.00 | 77 | 1018.5 |
| 20260504044956 | 10 | 269 | 0.0 | 0.0 | 0.00 | 0.00 | 0.00 | 77 | 1018.5 |
| 20260504044856 | 10 | 269 | 0.0 | 0.0 | 0.00 | 0.00 | 0.00 | 77 | 1018.4 |
| 20260504044816 | 10 | 269 | 0.0 | 0.0 | 0.00 | 0.00 | 0.00 | 77 | 1018.4 |
| 20260504044656 | 10 | 269 | 0.0 | 0.0 | 0.00 | 0.00 | 0.00 | 77 | 1018.5 |
| 20260504044555 | 10 | 269 | 0.0 | 0.0 | 0.00 | 0.00 | 0.00 | 77 | 1018.5 |
| 20260504044535 | 9 | 269 | 0.0 | 0.0 | 0.00 | 0.00 | 0.00 | 76 | 1018.6 |
| 20260504044453 | 10 | 269 | 0.0 | 0.0 | 0.00 | 0.00 | 0.00 | 76 | 1018.5 |
| 20260504044352 | 10 | 269 | 0.0 | 0.0 | 0.00 | 0.00 | 0.00 | 76 | 1018.4 |
| 20260504044250 | 10 | 269 | 0.0 | 0.0 | 0.00 | 0.00 | 0.00 | 76 | 1018.5 |
| 20260504044150 | 10 | 269 | 0.0 | 0.0 | 0.00 | 0.00 | 0.00 | 76 | 1018.5 |
| 20260504044050 | 10 | 269 | 0.0 | 0.0 | 0.00 | 0.00 | 0.00 | 76 | 1018.5 |
| 20260504043953 | 10 | 269 | 0.0 | 0.0 | 0.00 | 0.00 | 0.00 | 76 | 1018.5 |
| 20260504043853 | 10 | 269 | 0.0 | 0.0 | 0.00 | 0.00 | 0.00 | 76 | 1018.5 |
| 20260504043750 | 10 | 269 | 0.0 | 0.0 | 0.00 | 0.00 | 0.00 | 76 | 1018.5 |
| 20260504043650 | 10 | 269 | 0.0 | 0.0 | 0.00 | 0.00 | 0.00 | 76 | 1018.6 |
| 20260504043549 | 10 | 269 | 0.0 | 0.0 | 0.00 | 0.00 | 0.00 | 76 | 1018.5 |
| 20260504043449 | 10 | 269 | 0.0 | 0.0 | 0.00 | 0.00 | 0.00 | 76 | 1018.5 |
| 20260504043349 | 10 | 269 | 0.0 | 0.0 | 0.00 | 0.00 | 0.00 | 76 | 1018.6 |
| 20260504043251 | 10 | 269 | 0.0 | 0.0 | 0.00 | 0.00 | 0.00 | 77 | 1018.6 |
| 20260504043211 | 10 | 269 | 0.0 | 0.0 | 0.00 | 0.00 | 0.00 | 77 | 1018.7 |
| 20260504043048 | 10 | 269 | 0.0 | 0.0 | 0.00 | 0.00 | 0.00 | 76 | 1018.7 |
| 20260504043021 | 9 | 269 | 0.0 | 0.0 | 0.00 | 0.00 | 0.00 | 76 | 1018.8 |
| 20260504042949 | 10 | 269 | 0.0 | 0.0 | 0.00 | 0.00 | 0.00 | 76 | 1018.7 |
| 20260504042849 | 10 | 269 | 0.0 | 0.0 | 0.00 | 0.00 | 0.00 | 76 | 1018.7 |
| 20260504042748 | 10 | 269 | 0.0 | 0.0 | 0.00 | 0.00 | 0.00 | 76 | 1018.7 |
| 20260504042648 | 10 | 269 | 0.0 | 0.0 | 0.00 | 0.00 | 0.00 | 76 | 1018.8 |
| 20260504042552 | 10 | 269 | 0.0 | 0.0 | 0.00 | 0.00 | 0.00 | 76 | 1018.8 |
| 20260504042511 | 10 | 269 | 0.0 | 0.0 | 0.00 | 0.00 | 0.00 | 76 | 1018.7 |
| 20260504042350 | 10 | 269 | 0.0 | 0.0 | 0.00 | 0.00 | 0.00 | 76 | 1018.7 |
| 20260504042309 | 10 | 269 | 0.0 | 0.0 | 0.00 | 0.00 | 0.00 | 76 | 1018.8 |
| 20260504042148 | 10 | 269 | 0.0 | 0.0 | 0.00 | 0.00 | 0.00 | 76 | 1018.8 |
| 20260504042047 | 10 | 269 | 0.0 | 0.0 | 0.00 | 0.00 | 0.00 | 76 | 1018.8 |
| 20260504041947 | 10 | 269 | 0.0 | 0.0 | 0.00 | 0.00 | 0.00 | 76 | 1018.8 |
| 20260504041906 | 10 | 269 | 0.0 | 0.0 | 0.00 | 0.00 | 0.00 | 76 | 1018.8 |
| 20260504041749 | 10 | 269 | 0.0 | 0.0 | 0.00 | 0.00 | 0.00 | 76 | 1018.8 |
| 20260504041709 | 10 | 269 | 0.0 | 0.0 | 0.00 | 0.00 | 0.00 | 76 | 1018.8 |
| 20260504041610 | 9 | 269 | 0.0 | 0.0 | 0.00 | 0.00 | 0.00 | 76 | 1018.8 |
| 20260504041548 | 10 | 269 | 0.0 | 0.0 | 0.00 | 0.00 | 0.00 | 76 | 1018.7 |
| 20260504041448 | 10 | 269 | 0.0 | 0.0 | 0.00 | 0.00 | 0.00 | 76 | 1018.8 |
| 20260504041408 | 10 | 269 | 0.0 | 0.0 | 0.00 | 0.00 | 0.00 | 76 | 1018.8 |
| 20260504041247 | 10 | 269 | 0.0 | 0.0 | 0.00 | 0.00 | 0.00 | 76 | 1018.7 |
| 20260504041147 | 10 | 269 | 0.0 | 0.0 | 0.00 | 0.00 | 0.00 | 75 | 1018.7 |
| 20260504041107 | 10 | 269 | 0.0 | 0.0 | 0.00 | 0.00 | 0.00 | 75 | 1018.8 |
| 20260504040949 | 10 | 269 | 0.0 | 0.0 | 0.00 | 0.00 | 0.00 | 75 | 1018.8 |
| 20260504040849 | 10 | 269 | 0.0 | 0.0 | 0.00 | 0.00 | 0.00 | 75 | 1018.8 |
| 20260504040748 | 10 | 269 | 0.0 | 0.0 | 0.00 | 0.00 | 0.00 | 75 | 1018.8 |
| 20260504040709 | 10 | 269 | 0.0 | 0.0 | 0.00 | 0.00 | 0.00 | 75 | 1018.7 |
| 20260504040546 | 10 | 269 | 0.0 | 0.0 | 0.00 | 0.00 | 0.00 | 75 | 1018.7 |
| 20260504040446 | 10 | 269 | 0.0 | 0.0 | 0.00 | 0.00 | 0.00 | 75 | 1018.7 |
| 20260504040405 | 10 | 269 | 0.0 | 0.0 | 0.00 | 0.00 | 0.00 | 75 | 1018.7 |
| 20260504040302 | 10 | 269 | 0.0 | 0.0 | 0.00 | 0.00 | 0.00 | 75 | 1018.7 |
| 20260504040212 | 10 | 269 | 0.0 | 0.0 | 0.00 | 0.00 | 0.00 | 75 | 1018.7 |
| 20260504035959 | 10 | 269 | 0.0 | 0.0 | 0.00 | 0.00 | 0.00 | 75 | 1018.7 |
| 20260504035852 | 10 | 269 | 0.0 | 0.0 | 0.00 | 0.00 | 0.00 | 75 | 1018.7 |
| 20260504035752 | 10 | 269 | 0.0 | 0.0 | 0.00 | 0.00 | 0.00 | 75 | 1018.7 |
| 20260504035652 | 10 | 269 | 0.0 | 0.0 | 0.00 | 0.00 | 0.00 | 75 | 1018.7 |
| 20260504035551 | 10 | 269 | 0.0 | 0.0 | 0.00 | 0.00 | 0.00 | 75 | 1018.7 |
| 20260504035510 | 10 | 269 | 0.0 | 0.0 | 0.00 | 0.00 | 0.00 | 75 | 1018.8 |
| 20260504035351 | 10 | 269 | 0.0 | 0.0 | 0.00 | 0.00 | 0.00 | 75 | 1018.8 |
| 20260504035249 | 10 | 269 | 0.0 | 0.0 | 0.00 | 0.00 | 0.00 | 74 | 1018.8 |
| 20260504035148 | 10 | 269 | 0.0 | 0.0 | 0.00 | 0.00 | 0.00 | 74 | 1018.9 |
| 20260504035048 | 10 | 269 | 0.0 | 0.0 | 0.00 | 0.00 | 0.00 | 74 | 1018.9 |
| 20260504034949 | 10 | 269 | 0.0 | 0.0 | 0.00 | 0.00 | 0.00 | 74 | 1018.9 |
| 20260504034848 | 10 | 269 | 0.0 | 0.0 | 0.00 | 0.00 | 0.00 | 74 | 1018.9 |
| 20260504034807 | 10 | 269 | 0.0 | 0.0 | 0.00 | 0.00 | 0.00 | 74 | 1018.9 |
| 20260504034709 | 10 | 269 | 0.0 | 0.0 | 0.00 | 0.00 | 0.00 | 74 | 1018.9 |
| 20260504034548 | 10 | 269 | 0.0 | 0.0 | 0.00 | 0.00 | 0.00 | 74 | 1018.9 |
| 20260504034506 | 9 | 269 | 0.0 | 0.0 | 0.00 | 0.00 | 0.00 | 74 | 1019.0 |
| 20260504034447 | 10 | 269 | 0.0 | 0.0 | 0.00 | 0.00 | 0.00 | 74 | 1018.9 |
| 20260504034347 | 10 | 269 | 0.0 | 0.0 | 0.00 | 0.00 | 0.00 | 74 | 1018.9 |
| 20260504034247 | 10 | 269 | 0.0 | 0.0 | 0.00 | 0.00 | 0.00 | 73 | 1018.8 |
| 20260504034147 | 10 | 269 | 0.0 | 0.0 | 0.00 | 0.00 | 0.00 | 73 | 1018.8 |
| 20260504034046 | 10 | 269 | 0.0 | 0.0 | 0.00 | 0.00 | 0.00 | 73 | 1018.8 |
| 20260504034009 | 10 | 269 | 0.0 | 0.0 | 0.00 | 0.00 | 0.00 | 73 | 1018.8 |
| 20260504033905 | 10 | 269 | 0.0 | 0.0 | 0.00 | 0.00 | 0.00 | 73 | 1018.8 |
| 20260504033742 | 10 | 269 | 0.0 | 0.0 | 0.00 | 0.00 | 0.00 | 73 | 1018.8 |
| 20260504033643 | 10 | 269 | 0.0 | 0.0 | 0.00 | 0.00 | 0.00 | 73 | 1018.9 |
| 20260504033603 | 10 | 269 | 0.0 | 0.0 | 0.00 | 0.00 | 0.00 | 73 | 1018.9 |
| 20260504033442 | 10 | 269 | 0.0 | 0.0 | 0.00 | 0.00 | 0.00 | 72 | 1018.9 |
| 20260504033401 | 10 | 269 | 0.0 | 0.0 | 0.00 | 0.00 | 0.00 | 72 | 1018.9 |
| 20260504033239 | 10 | 269 | 0.0 | 0.0 | 0.00 | 0.00 | 0.00 | 72 | 1018.8 |
| 20260504033141 | 10 | 269 | 0.0 | 0.0 | 0.00 | 0.00 | 0.00 | 72 | 1018.9 |
| 20260504033041 | 10 | 269 | 0.0 | 0.0 | 0.00 | 0.00 | 0.00 | 72 | 1018.8 |
| 20260504033018 | 10 | 269 | 0.0 | 0.0 | 0.00 | 0.00 | 0.00 | 72 | 1018.9 |
| 20260504032941 | 10 | 269 | 0.0 | 0.0 | 0.00 | 0.00 | 0.00 | 72 | 1018.8 |
| 20260504032841 | 10 | 269 | 0.0 | 0.0 | 0.00 | 0.00 | 0.00 | 72 | 1018.9 |
| 20260504032739 | 10 | 269 | 0.0 | 0.0 | 0.00 | 0.00 | 0.00 | 72 | 1018.9 |
| 20260504032658 | 10 | 269 | 0.0 | 0.0 | 0.00 | 0.00 | 0.00 | 72 | 1018.9 |
| 20260504032557 | 10 | 269 | 0.0 | 0.0 | 0.00 | 0.00 | 0.00 | 72 | 1018.8 |
| 20260504032440 | 10 | 269 | 0.0 | 0.0 | 0.00 | 0.00 | 0.00 | 71 | 1018.9 |
| 20260504032340 | 10 | 269 | 0.0 | 0.0 | 0.00 | 0.00 | 0.00 | 71 | 1018.9 |
| 20260504032239 | 10 | 269 | 0.0 | 0.0 | 0.00 | 0.00 | 0.00 | 71 | 1018.9 |
| 20260504032139 | 10 | 269 | 0.0 | 0.0 | 0.00 | 0.00 | 0.00 | 70 | 1018.9 |
| 20260504032038 | 10 | 269 | 0.0 | 0.0 | 0.00 | 0.00 | 0.00 | 70 | 1018.9 |
| 20260504031938 | 10 | 269 | 0.0 | 0.0 | 0.00 | 0.00 | 0.00 | 70 | 1018.9 |
| 20260504031837 | 10 | 269 | 0.0 | 0.0 | 0.00 | 0.00 | 0.00 | 70 | 1018.9 |
| 20260504031800 | 10 | 269 | 0.0 | 0.0 | 0.00 | 0.00 | 0.00 | 70 | 1018.9 |
| 20260504031700 | 10 | 269 | 0.0 | 0.0 | 0.00 | 0.00 | 0.00 | 70 | 1018.8 |
| 20260504031539 | 10 | 269 | 0.0 | 0.0 | 0.00 | 0.00 | 0.00 | 70 | 1018.8 |
| 20260504031513 | 10 | 269 | 0.0 | 0.0 | 0.00 | 0.00 | 0.00 | 70 | 1019.0 |
| 20260504031458 | 10 | 269 | 0.0 | 0.0 | 0.00 | 0.00 | 0.00 | 70 | 1018.9 |
| 20260504031357 | 10 | 269 | 0.0 | 0.0 | 0.00 | 0.00 | 0.00 | 70 | 1018.9 |
| 20260504031256 | 10 | 269 | 0.0 | 0.0 | 0.00 | 0.00 | 0.00 | 70 | 1018.9 |
| 20260504031156 | 10 | 269 | 0.0 | 0.0 | 0.00 | 0.00 | 0.00 | 70 | 1018.8 |
| 20260504031056 | 10 | 269 | 0.0 | 0.0 | 0.00 | 0.00 | 0.00 | 70 | 1018.8 |
| 20260504030940 | 10 | 269 | 0.0 | 0.0 | 0.00 | 0.00 | 0.00 | 70 | 1018.8 |
| 20260504030859 | 10 | 269 | 0.0 | 0.0 | 0.00 | 0.00 | 0.00 | 70 | 1018.8 |
| 20260504030738 | 10 | 269 | 0.0 | 0.0 | 0.00 | 0.00 | 0.00 | 70 | 1018.8 |
| 20260504030638 | 10 | 269 | 0.0 | 0.0 | 0.00 | 0.00 | 0.00 | 70 | 1018.8 |
| 20260504030538 | 10 | 269 | 0.0 | 0.0 | 0.00 | 0.00 | 0.00 | 69 | 1018.8 |
| 20260504030457 | 10 | 269 | 0.0 | 0.0 | 0.00 | 0.00 | 0.00 | 69 | 1018.8 |
| 20260504030355 | 10 | 269 | 0.0 | 0.0 | 0.00 | 0.00 | 0.00 | 69 | 1018.8 |
| 20260504030259 | 10 | 269 | 0.0 | 0.0 | 0.00 | 0.00 | 0.00 | 69 | 1018.8 |
| 20260504030227 | 10 | 269 | 0.0 | 0.0 | 0.00 | 0.00 | 0.00 | 69 | 1018.8 |
| 20260504030013 | 10 | 269 | 0.0 | 0.0 | 0.00 | 0.00 | 0.00 | 69 | 1018.8 |
| 20260504025852 | 10 | 269 | 0.0 | 0.0 | 0.00 | 0.00 | 0.00 | 69 | 1018.8 |
| 20260504025752 | 10 | 269 | 0.0 | 0.0 | 0.00 | 0.00 | 0.00 | 69 | 1018.8 |
| 20260504025652 | 11 | 269 | 0.0 | 0.0 | 0.00 | 0.00 | 0.00 | 69 | 1018.8 |
| 20260504025616 | 11 | 269 | 0.0 | 0.0 | 0.00 | 0.00 | 0.00 | 69 | 1018.8 |
| 20260504025455 | 11 | 269 | 0.0 | 0.0 | 0.00 | 0.00 | 0.00 | 68 | 1018.8 |
| 20260504025356 | 11 | 269 | 0.0 | 0.0 | 0.00 | 0.00 | 0.00 | 68 | 1018.7 |
| 20260504025256 | 11 | 269 | 0.0 | 0.0 | 0.00 | 0.00 | 0.00 | 68 | 1018.7 |
| 20260504025216 | 11 | 269 | 0.0 | 0.0 | 0.00 | 0.00 | 0.00 | 68 | 1018.7 |
| 20260504025115 | 11 | 269 | 0.0 | 0.0 | 0.00 | 0.00 | 0.00 | 68 | 1018.7 |
| 20260504024954 | 11 | 269 | 0.0 | 0.0 | 0.00 | 0.00 | 0.00 | 68 | 1018.6 |
| 20260504024839 | 11 | 269 | 0.0 | 0.0 | 0.00 | 0.00 | 0.00 | 67 | 1018.6 |
| 20260504024740 | 11 | 269 | 0.0 | 0.0 | 0.00 | 0.00 | 0.00 | 67 | 1018.6 |
| 20260504024642 | 11 | 269 | 0.0 | 0.0 | 0.00 | 0.00 | 0.00 | 67 | 1018.6 |
| 20260504024556 | 10 | 269 | 0.0 | 0.0 | 0.00 | 0.00 | 0.00 | 67 | 1018.8 |
| 20260504024542 | 11 | 269 | 0.0 | 0.0 | 0.00 | 0.00 | 0.00 | 67 | 1018.6 |
| 20260504024442 | 11 | 269 | 0.0 | 0.0 | 0.00 | 0.00 | 0.00 | 67 | 1018.6 |
| 20260504024402 | 11 | 269 | 0.0 | 0.0 | 0.00 | 0.00 | 0.00 | 67 | 1018.6 |
| 20260504024241 | 11 | 269 | 0.0 | 0.0 | 0.00 | 0.00 | 0.00 | 67 | 1018.6 |
| 20260504024146 | 11 | 269 | 0.0 | 0.0 | 0.00 | 0.00 | 0.00 | 67 | 1018.6 |
| 20260504024047 | 11 | 269 | 0.0 | 0.0 | 0.00 | 0.00 | 0.00 | 67 | 1018.6 |
| 20260504023945 | 11 | 269 | 0.0 | 0.0 | 0.00 | 0.00 | 0.00 | 67 | 1018.6 |
| 20260504023846 | 11 | 269 | 0.0 | 0.0 | 0.00 | 0.00 | 0.00 | 67 | 1018.6 |
| 20260504023746 | 11 | 269 | 0.0 | 0.0 | 0.00 | 0.00 | 0.00 | 67 | 1018.6 |
| 20260504023647 | 11 | 269 | 0.0 | 0.0 | 0.00 | 0.00 | 0.00 | 67 | 1018.6 |
| 20260504023547 | 11 | 269 | 0.0 | 0.0 | 0.00 | 0.00 | 0.00 | 66 | 1018.5 |
| 20260504023446 | 11 | 269 | 0.0 | 0.0 | 0.00 | 0.00 | 0.00 | 66 | 1018.6 |
| 20260504023351 | 11 | 269 | 0.0 | 0.0 | 0.00 | 0.00 | 0.00 | 66 | 1018.5 |
| 20260504023310 | 11 | 269 | 0.0 | 0.0 | 0.00 | 0.00 | 0.00 | 66 | 1018.5 |
| 20260504023149 | 11 | 269 | 0.0 | 0.0 | 0.00 | 0.00 | 0.00 | 66 | 1018.5 |
| 20260504023049 | 11 | 269 | 0.0 | 0.0 | 0.00 | 0.00 | 0.00 | 66 | 1018.5 |
| 20260504023034 | 11 | 269 | 0.0 | 0.0 | 0.00 | 0.00 | 0.00 | 66 | 1018.6 |
| 20260504022950 | 11 | 269 | 0.0 | 0.0 | 0.00 | 0.00 | 0.00 | 66 | 1018.4 |
| 20260504022850 | 11 | 269 | 0.0 | 0.0 | 0.00 | 0.00 | 0.00 | 66 | 1018.4 |
| 20260504022751 | 11 | 269 | 0.0 | 0.0 | 0.00 | 0.00 | 0.00 | 66 | 1018.5 |
| 20260504022711 | 11 | 269 | 0.0 | 0.0 | 0.00 | 0.00 | 0.00 | 66 | 1018.4 |
| 20260504022554 | 11 | 269 | 0.0 | 0.0 | 0.00 | 0.00 | 0.00 | 66 | 1018.4 |
| 20260504022454 | 11 | 269 | 0.0 | 0.0 | 0.00 | 0.00 | 0.00 | 66 | 1018.4 |
| 20260504022354 | 11 | 269 | 0.0 | 0.0 | 0.00 | 0.00 | 0.00 | 66 | 1018.4 |
| 20260504022315 | 11 | 269 | 0.0 | 0.0 | 0.00 | 0.00 | 0.00 | 66 | 1018.4 |
| 20260504022155 | 11 | 269 | 0.0 | 0.0 | 0.00 | 0.00 | 0.00 | 66 | 1018.4 |
| 20260504022037 | 11 | 269 | 0.0 | 0.0 | 0.00 | 0.00 | 0.00 | 66 | 1018.4 |
| 20260504021941 | 11 | 269 | 0.0 | 0.0 | 0.00 | 0.00 | 0.00 | 65 | 1018.4 |
| 20260504021842 | 11 | 269 | 0.0 | 0.0 | 0.00 | 0.00 | 0.00 | 66 | 1018.4 |
| 20260504021742 | 11 | 269 | 0.0 | 0.0 | 0.00 | 0.00 | 0.00 | 66 | 1018.3 |
| 20260504021642 | 11 | 269 | 0.0 | 0.0 | 0.00 | 0.00 | 0.00 | 66 | 1018.3 |
| 20260504021602 | 11 | 269 | 0.0 | 0.0 | 0.00 | 0.00 | 0.00 | 66 | 1018.3 |
| 20260504021526 | 11 | 269 | 0.0 | 0.0 | 0.00 | 0.00 | 0.00 | 66 | 1018.5 |
| 20260504021501 | 11 | 269 | 0.0 | 0.0 | 0.00 | 0.00 | 0.00 | 66 | 1018.3 |
| 20260504021339 | 11 | 269 | 0.0 | 0.0 | 0.00 | 0.00 | 0.00 | 65 | 1018.3 |
| 20260504021240 | 11 | 269 | 0.0 | 0.0 | 0.00 | 0.00 | 0.00 | 65 | 1018.3 |
| 20260504021145 | 11 | 269 | 0.0 | 0.0 | 0.00 | 0.00 | 0.00 | 65 | 1018.3 |
| 20260504021106 | 11 | 269 | 0.0 | 0.0 | 0.00 | 0.00 | 0.00 | 65 | 1018.2 |
| 20260504020946 | 11 | 269 | 0.0 | 0.0 | 0.00 | 0.00 | 0.00 | 65 | 1018.2 |
| 20260504020846 | 11 | 269 | 0.0 | 0.0 | 0.00 | 0.00 | 0.00 | 66 | 1018.2 |
| 20260504020807 | 11 | 269 | 0.0 | 0.0 | 0.00 | 0.00 | 0.00 | 66 | 1018.2 |
| 20260504020647 | 11 | 269 | 0.0 | 0.0 | 0.00 | 0.00 | 0.00 | 66 | 1018.2 |
| 20260504020548 | 11 | 269 | 0.0 | 0.0 | 0.00 | 0.00 | 0.00 | 66 | 1018.2 |
| 20260504020453 | 11 | 269 | 0.0 | 0.0 | 0.00 | 0.00 | 0.00 | 65 | 1018.2 |
| 20260504020412 | 11 | 269 | 0.0 | 0.0 | 0.00 | 0.00 | 0.00 | 65 | 1018.2 |
| 20260504020300 | 11 | 269 | 0.0 | 0.0 | 0.00 | 0.00 | 0.00 | 65 | 1018.2 |
| 20260504020228 | 11 | 269 | 0.0 | 0.0 | 0.00 | 0.00 | 0.00 | 65 | 1018.2 |
| 20260504020033 | 11 | 269 | 0.0 | 0.0 | 0.00 | 0.00 | 0.00 | 65 | 1018.3 |
| 20260504015954 | 11 | 269 | 0.0 | 0.0 | 0.00 | 0.00 | 0.00 | 65 | 1018.2 |
| 20260504015839 | 11 | 269 | 0.0 | 0.0 | 0.00 | 0.00 | 0.00 | 65 | 1018.1 |
| 20260504015800 | 11 | 269 | 0.0 | 0.0 | 0.00 | 0.00 | 0.00 | 65 | 1018.1 |
| 20260504015639 | 11 | 269 | 0.0 | 0.0 | 0.00 | 0.00 | 0.00 | 64 | 1018.1 |
| 20260504015540 | 11 | 269 | 0.0 | 0.0 | 0.00 | 0.00 | 0.00 | 65 | 1018.1 |
| 20260504015441 | 11 | 269 | 0.0 | 0.0 | 0.00 | 0.00 | 0.00 | 64 | 1018.1 |
| 20260504015402 | 11 | 269 | 0.0 | 0.0 | 0.00 | 0.00 | 0.00 | 64 | 1018.1 |
| 20260504015242 | 11 | 269 | 0.0 | 0.0 | 0.00 | 0.00 | 0.00 | 63 | 1018.1 |
| 20260504015142 | 11 | 269 | 0.0 | 0.0 | 0.00 | 0.00 | 0.00 | 64 | 1018.1 |
| 20260504015107 | 11 | 269 | 0.0 | 0.0 | 0.00 | 0.00 | 0.00 | 64 | 1018.1 |
| 20260504014947 | 11 | 269 | 0.0 | 0.0 | 0.00 | 0.00 | 0.00 | 64 | 1018.1 |
| 20260504014848 | 11 | 269 | 0.0 | 0.0 | 0.00 | 0.00 | 0.00 | 64 | 1018.0 |
| 20260504014749 | 11 | 269 | 0.0 | 0.0 | 0.00 | 0.00 | 0.00 | 63 | 1018.1 |
| 20260504014650 | 11 | 269 | 0.0 | 0.0 | 0.00 | 0.00 | 0.00 | 63 | 1018.0 |
| 20260504014551 | 11 | 269 | 0.0 | 0.0 | 0.00 | 0.00 | 0.00 | 63 | 1018.0 |
| 20260504014540 | 11 | 269 | 0.0 | 0.0 | 0.00 | 0.00 | 0.00 | 63 | 1018.1 |
| 20260504014511 | 11 | 269 | 0.0 | 0.0 | 0.00 | 0.00 | 0.00 | 63 | 1018.0 |
| 20260504014355 | 11 | 269 | 0.0 | 0.0 | 0.00 | 0.00 | 0.00 | 64 | 1018.0 |
| 20260504014256 | 11 | 269 | 0.0 | 0.0 | 0.00 | 0.00 | 0.00 | 64 | 1018.0 |
| 20260504014215 | 11 | 269 | 0.0 | 0.0 | 0.00 | 0.00 | 0.00 | 63 | 1017.9 |
| 20260504014115 | 11 | 269 | 0.0 | 0.0 | 0.00 | 0.00 | 0.00 | 63 | 1018.0 |
| 20260504013954 | 11 | 269 | 0.0 | 0.0 | 0.00 | 0.00 | 0.00 | 63 | 1017.9 |
| 20260504013855 | 11 | 269 | 0.0 | 0.0 | 0.00 | 0.00 | 0.00 | 63 | 1017.9 |
| 20260504013756 | 12 | 269 | 0.0 | 0.0 | 0.00 | 0.00 | 0.00 | 63 | 1018.0 |
| 20260504013717 | 12 | 269 | 0.0 | 0.0 | 0.00 | 0.00 | 0.00 | 63 | 1017.9 |
| 20260504013541 | 12 | 269 | 0.0 | 0.0 | 0.00 | 0.00 | 0.00 | 63 | 1017.9 |
| 20260504013501 | 12 | 269 | 0.0 | 0.0 | 0.00 | 0.00 | 0.00 | 63 | 1017.9 |
| 20260504013340 | 12 | 269 | 0.0 | 0.0 | 0.00 | 0.00 | 0.00 | 63 | 1017.9 |
| 20260504013241 | 12 | 269 | 0.0 | 0.0 | 0.00 | 0.00 | 0.00 | 63 | 1017.7 |
| 20260504013142 | 12 | 269 | 0.0 | 0.0 | 0.00 | 0.00 | 0.00 | 62 | 1017.8 |
| 20260504013114 | 11 | 269 | 0.0 | 0.0 | 0.00 | 0.00 | 0.00 | 62 | 1017.9 |
| 20260504013043 | 12 | 269 | 0.0 | 0.0 | 0.00 | 0.00 | 0.00 | 62 | 1017.8 |
| 20260504012944 | 12 | 269 | 0.0 | 0.0 | 0.00 | 0.00 | 0.00 | 62 | 1017.8 |
| 20260504012849 | 12 | 269 | 0.0 | 0.0 | 0.00 | 0.00 | 0.00 | 62 | 1017.8 |
| 20260504012750 | 12 | 269 | 0.0 | 0.0 | 0.00 | 0.00 | 0.00 | 62 | 1017.8 |
| 20260504012709 | 12 | 269 | 0.0 | 0.0 | 0.00 | 0.00 | 0.00 | 62 | 1017.8 |
| 20260504012549 | 12 | 269 | 0.0 | 0.0 | 0.00 | 0.00 | 0.00 | 62 | 1017.7 |
| 20260504012450 | 12 | 269 | 0.0 | 0.0 | 0.00 | 0.00 | 0.00 | 61 | 1017.7 |
| 20260504012351 | 12 | 269 | 0.0 | 0.0 | 0.00 | 0.00 | 0.00 | 61 | 1017.7 |
| 20260504012312 | 12 | 269 | 0.0 | 0.0 | 0.00 | 0.00 | 0.00 | 61 | 1017.7 |
| 20260504012156 | 12 | 269 | 0.0 | 0.0 | 0.00 | 0.00 | 0.00 | 61 | 1017.7 |
| 20260504012037 | 12 | 269 | 0.0 | 0.0 | 0.00 | 0.00 | 0.00 | 60 | 1017.7 |
| 20260504011956 | 12 | 269 | 0.0 | 0.0 | 0.00 | 0.00 | 0.00 | 60 | 1017.7 |
| 20260504011916 | 12 | 269 | 0.0 | 0.0 | 0.00 | 0.00 | 0.00 | 60 | 1017.7 |
| 20260504011755 | 12 | 269 | 0.0 | 0.0 | 0.00 | 0.00 | 0.00 | 60 | 1017.7 |
| 20260504011714 | 12 | 269 | 0.0 | 0.0 | 0.00 | 0.00 | 0.00 | 60 | 1017.7 |
| 20260504011553 | 12 | 269 | 0.0 | 0.0 | 0.00 | 0.00 | 0.00 | 60 | 1017.7 |
| 20260504011526 | 12 | 269 | 0.0 | 0.0 | 0.00 | 0.00 | 0.00 | 60 | 1017.8 |
| 20260504011438 | 12 | 269 | 0.0 | 0.0 | 0.00 | 0.00 | 0.00 | 60 | 1017.7 |
| 20260504011339 | 12 | 269 | 0.0 | 0.0 | 0.00 | 0.00 | 0.00 | 60 | 1017.7 |
| 20260504011300 | 12 | 269 | 0.0 | 0.0 | 0.00 | 0.00 | 0.00 | 60 | 1017.6 |
| 20260504011200 | 12 | 269 | 0.0 | 0.0 | 0.00 | 0.00 | 0.00 | 60 | 1017.7 |
| 20260504011040 | 12 | 269 | 0.0 | 0.0 | 0.00 | 0.00 | 0.00 | 60 | 1017.7 |
| 20260504010940 | 12 | 269 | 0.0 | 0.0 | 0.00 | 0.00 | 0.00 | 60 | 1017.6 |
| 20260504010841 | 12 | 269 | 0.0 | 0.0 | 0.00 | 0.00 | 0.00 | 60 | 1017.6 |
| 20260504010743 | 12 | 269 | 0.0 | 0.0 | 0.00 | 0.00 | 0.00 | 60 | 1017.5 |
| 20260504010647 | 12 | 269 | 0.0 | 0.0 | 0.00 | 0.00 | 0.00 | 60 | 1017.6 |
| 20260504010548 | 12 | 269 | 0.0 | 0.0 | 0.00 | 0.00 | 0.00 | 59 | 1017.5 |
| 20260504010509 | 12 | 269 | 0.0 | 0.0 | 0.00 | 0.00 | 0.00 | 59 | 1017.6 |
| 20260504010349 | 12 | 269 | 0.0 | 0.0 | 0.00 | 0.00 | 0.00 | 59 | 1017.5 |
| 20260504010250 | 13 | 269 | 0.0 | 0.0 | 0.00 | 0.00 | 0.00 | 59 | 1017.5 |
| 20260504010222 | 13 | 269 | 0.0 | 0.0 | 0.00 | 0.00 | 0.00 | 59 | 1017.5 |
| 20260504010005 | 12 | 269 | 0.0 | 0.0 | 0.00 | 0.00 | 0.00 | 59 | 1017.6 |
| 20260504005949 | 13 | 269 | 0.0 | 0.0 | 0.00 | 0.00 | 0.00 | 59 | 1017.5 |
| 20260504005847 | 13 | 269 | 0.0 | 0.0 | 0.00 | 0.00 | 0.00 | 59 | 1017.4 |
| 20260504005747 | 13 | 269 | 0.0 | 0.0 | 0.00 | 0.00 | 0.00 | 59 | 1017.5 |
| 20260504005648 | 13 | 269 | 0.0 | 0.0 | 0.00 | 0.00 | 0.00 | 58 | 1017.4 |
| 20260504005548 | 13 | 269 | 0.0 | 0.0 | 0.00 | 0.00 | 0.00 | 58 | 1017.5 |
| 20260504005449 | 13 | 269 | 0.0 | 0.0 | 0.00 | 0.00 | 0.00 | 58 | 1017.4 |
| 20260504005353 | 13 | 269 | 0.0 | 0.0 | 0.00 | 0.00 | 0.00 | 58 | 1017.4 |
| 20260504005313 | 13 | 269 | 0.0 | 0.0 | 0.00 | 0.00 | 0.00 | 57 | 1017.4 |
| 20260504005213 | 13 | 269 | 0.0 | 0.0 | 0.00 | 0.00 | 0.00 | 57 | 1017.4 |
| 20260504005052 | 13 | 269 | 0.0 | 0.0 | 0.00 | 0.00 | 0.00 | 57 | 1017.3 |
| 20260504004953 | 13 | 269 | 0.0 | 0.0 | 0.00 | 0.00 | 0.00 | 57 | 1017.3 |
| 20260504004854 | 13 | 269 | 0.0 | 0.0 | 0.00 | 0.00 | 0.00 | 57 | 1017.3 |
| 20260504004755 | 13 | 269 | 0.0 | 0.0 | 0.00 | 0.00 | 0.00 | 56 | 1017.3 |
| 20260504004639 | 13 | 269 | 0.0 | 0.0 | 0.00 | 0.00 | 0.00 | 56 | 1017.3 |
| 20260504004540 | 13 | 269 | 0.0 | 0.0 | 0.00 | 0.00 | 0.00 | 55 | 1017.3 |
| 20260504004527 | 13 | 269 | 0.0 | 0.0 | 0.00 | 0.00 | 0.00 | 55 | 1017.4 |
| 20260504004442 | 13 | 269 | 0.0 | 0.0 | 0.00 | 0.00 | 0.00 | 55 | 1017.3 |
| 20260504004343 | 13 | 269 | 0.0 | 0.0 | 0.00 | 0.00 | 0.00 | 54 | 1017.3 |
| 20260504004243 | 13 | 269 | 0.0 | 0.0 | 0.00 | 0.00 | 0.00 | 54 | 1017.2 |
| 20260504004142 | 13 | 269 | 0.0 | 0.0 | 0.00 | 0.00 | 0.00 | 54 | 1017.2 |
| 20260504004103 | 13 | 269 | 0.0 | 0.0 | 0.00 | 0.00 | 0.00 | 54 | 1017.2 |
| 20260504004007 | 13 | 269 | 0.0 | 0.0 | 0.00 | 0.00 | 0.00 | 54 | 1017.2 |
| 20260504003846 | 13 | 269 | 0.0 | 0.0 | 0.00 | 0.00 | 0.00 | 54 | 1017.3 |
| 20260504003747 | 14 | 269 | 0.0 | 0.0 | 0.00 | 0.00 | 0.00 | 54 | 1017.2 |
| 20260504003648 | 14 | 269 | 0.0 | 0.0 | 0.00 | 0.00 | 0.00 | 54 | 1017.2 |
| 20260504003545 | 14 | 269 | 0.0 | 0.0 | 0.00 | 0.00 | 0.00 | 54 | 1017.2 |
| 20260504003445 | 14 | 269 | 0.0 | 0.0 | 0.00 | 0.00 | 0.00 | 53 | 1017.2 |
| 20260504003346 | 14 | 269 | 0.0 | 0.0 | 0.00 | 0.00 | 0.00 | 53 | 1017.2 |
| 20260504003250 | 14 | 269 | 0.0 | 0.0 | 0.00 | 0.00 | 0.00 | 53 | 1017.2 |
| 20260504003210 | 14 | 269 | 0.0 | 0.0 | 0.00 | 0.00 | 0.00 | 53 | 1017.2 |
| 20260504003108 | 14 | 269 | 0.0 | 0.0 | 0.00 | 0.00 | 0.00 | 53 | 1017.2 |
| 20260504003038 | 14 | 269 | 0.0 | 0.0 | 0.00 | 0.00 | 0.00 | 53 | 1017.3 |
| 20260504003008 | 14 | 269 | 0.0 | 0.0 | 0.00 | 0.00 | 0.00 | 52 | 1017.1 |
| 20260504002847 | 14 | 269 | 0.0 | 0.0 | 0.00 | 0.00 | 0.00 | 52 | 1017.1 |
| 20260504002747 | 14 | 269 | 0.0 | 0.0 | 0.00 | 0.00 | 0.00 | 52 | 1017.1 |
| 20260504002648 | 15 | 269 | 0.0 | 0.0 | 0.00 | 0.00 | 0.00 | 52 | 1017.1 |
| 20260504002549 | 15 | 269 | 0.0 | 0.0 | 0.00 | 0.00 | 0.00 | 52 | 1017.1 |
| 20260504002453 | 15 | 269 | 0.0 | 0.0 | 0.00 | 0.00 | 0.00 | 52 | 1017.1 |
| 20260504002413 | 15 | 269 | 0.0 | 0.0 | 0.00 | 0.00 | 0.00 | 51 | 1017.1 |
| 20260504002252 | 15 | 269 | 0.0 | 0.0 | 0.00 | 0.00 | 0.00 | 51 | 1017.1 |